SIA25 EDDF-WSSS

Flight info

Callsign SIA25
Flight time 11h 44m
Altitude 31000
Route SULUS6F/25C SULUS Z650 VEMUT DCT NELPA DCT PEPIK DCT AMRAX/N0485F330 DCT NARKA DCT RULES DCT ELROM DCT MOBRA DCT DENAK DCT DINRO DCT UDROS DCT ABSAX DCT REBLO P130 DOGAM/N0484F350 P130 MAMED B449 RANAH L750 ZB G202 RK P628 IBANI L510 GURVI T1 BBS L759 LEMEX/N0490F370 L759 PUT B579 VPL Y503 RINBA Y507 MAKNA Y511 TOPOR A464 ARAMA ARAMA1A
Aircraft B77W/H-SDE1E2E3FGHIJ2J3J4J5M1RWXY/LB1D1

Departure

Time 2026-05-04 12:57
Airport Frankfurt Main Airport (EDDF)

Arrival

Time 2026-05-05 00:42
Airport Singapore Changi Airport (WSSS)
Time Latitude Longitude Altitude Speed Heading
2026-05-04 12:17 50.04834 8.57623 367 ft 0 kts 202°
2026-05-04 12:35 50.04835 8.57623 361 ft 0 kts 202°
2026-05-04 12:37 50.04834 8.57623 361 ft 0 kts 202°
2026-05-04 12:40 50.04850 8.57633 368 ft 4 kts 202°
2026-05-04 12:40 50.04875 8.57645 367 ft 4 kts 179°
2026-05-04 12:40 50.04898 8.57635 367 ft 4 kts 135°
2026-05-04 12:40 50.04911 8.57607 365 ft 1 kts 113°
2026-05-04 12:44 50.04910 8.57611 365 ft 2 kts 113°
2026-05-04 12:44 50.04900 8.57646 368 ft 5 kts 113°
2026-05-04 12:45 50.04888 8.57692 368 ft 5 kts 113°
2026-05-04 12:45 50.04875 8.57738 368 ft 5 kts 113°
2026-05-04 12:45 50.04862 8.57784 367 ft 5 kts 112°
2026-05-04 12:45 50.04849 8.57831 366 ft 6 kts 116°
2026-05-04 12:46 50.04817 8.57887 370 ft 7 kts 144°
2026-05-04 12:46 50.04772 8.57921 367 ft 8 kts 157°
2026-05-04 12:46 50.04717 8.57896 369 ft 9 kts 223°
2026-05-04 12:46 50.04687 8.57814 370 ft 9 kts 249°
2026-05-04 12:47 50.04661 8.57705 369 ft 12 kts 250°
2026-05-04 12:47 50.04631 8.57579 364 ft 12 kts 249°
2026-05-04 12:47 50.04601 8.57453 366 ft 12 kts 250°
2026-05-04 12:47 50.04571 8.57327 368 ft 12 kts 249°
2026-05-04 12:48 50.04541 8.57201 370 ft 12 kts 250°
2026-05-04 12:48 50.04510 8.57075 367 ft 12 kts 249°
2026-05-04 12:48 50.04480 8.56949 370 ft 12 kts 250°
2026-05-04 12:48 50.04450 8.56823 370 ft 12 kts 250°
2026-05-04 12:49 50.04420 8.56697 364 ft 12 kts 249°
2026-05-04 12:49 50.04390 8.56571 367 ft 12 kts 250°
2026-05-04 12:49 50.04360 8.56444 367 ft 12 kts 250°
2026-05-04 12:49 50.04329 8.56315 362 ft 13 kts 249°
2026-05-04 12:50 50.04298 8.56186 364 ft 13 kts 250°
2026-05-04 12:50 50.04267 8.56056 366 ft 13 kts 249°
2026-05-04 12:50 50.04236 8.55926 362 ft 13 kts 250°
2026-05-04 12:50 50.04202 8.55783 360 ft 14 kts 250°
2026-05-04 12:51 50.04167 8.55637 364 ft 14 kts 249°
2026-05-04 12:51 50.04132 8.55492 359 ft 14 kts 249°
2026-05-04 12:51 50.04097 8.55345 362 ft 15 kts 250°
2026-05-04 12:51 50.04058 8.55184 362 ft 16 kts 249°
2026-05-04 12:52 50.04019 8.55018 364 ft 16 kts 250°
2026-05-04 12:52 50.03979 8.54852 365 ft 16 kts 250°
2026-05-04 12:52 50.03939 8.54686 359 ft 16 kts 249°
2026-05-04 12:52 50.03913 8.54576 358 ft 16 kts 249°
2026-05-04 12:53 50.03854 8.54358 359 ft 16 kts 239°
2026-05-04 12:53 50.03812 8.54260 360 ft 16 kts 239°
2026-05-04 12:53 50.03769 8.54096 357 ft 16 kts 249°
2026-05-04 12:53 50.03729 8.53929 355 ft 16 kts 249°
2026-05-04 12:54 50.03689 8.53763 357 ft 16 kts 249°
2026-05-04 12:54 50.03648 8.53597 355 ft 16 kts 247°
2026-05-04 12:54 50.03607 8.53431 353 ft 16 kts 250°
2026-05-04 12:54 50.03568 8.53265 353 ft 16 kts 250°
2026-05-04 12:55 50.03528 8.53098 354 ft 16 kts 249°
2026-05-04 12:55 50.03488 8.52932 347 ft 16 kts 248°
2026-05-04 12:55 50.03443 8.52769 337 ft 16 kts 249°
2026-05-04 12:55 50.03402 8.52630 335 ft 13 kts 229°
2026-05-04 12:56 50.03316 8.52595 338 ft 13 kts 180°
2026-05-04 12:56 50.03190 8.52595 340 ft 29 kts 180°
2026-05-04 12:56 50.02769 8.52599 338 ft 94 kts 179°
2026-05-04 12:56 50.01904 8.52608 339 ft 153 kts 180°
2026-05-04 12:57 50.00680 8.52616 383 ft 191 kts 182°
2026-05-04 12:57 49.99340 8.52625 821 ft 197 kts 183°
2026-05-04 12:57 49.97963 8.52607 1413 ft 194 kts 179°
2026-05-04 12:57 49.96699 8.53320 1789 ft 202 kts 142°
2026-05-04 12:58 49.95751 8.54994 2020 ft 213 kts 122°
2026-05-04 12:58 49.95019 8.57048 2208 ft 224 kts 121°
2026-05-04 12:58 49.94267 8.59209 2494 ft 231 kts 116°
2026-05-04 12:58 49.93945 8.61707 2711 ft 244 kts 92°
2026-05-04 12:59 49.93893 8.64450 2900 ft 262 kts 94°
2026-05-04 12:59 49.93798 8.67217 3574 ft 257 kts 96°
2026-05-04 12:59 49.93266 8.69870 3918 ft 263 kts 130°
2026-05-04 12:59 49.91895 8.71730 4273 ft 265 kts 149°
2026-05-04 13:00 49.90350 8.73362 4770 ft 272 kts 147°
2026-05-04 13:00 49.88802 8.75079 5316 ft 274 kts 141°
2026-05-04 13:00 49.87619 8.77421 5729 ft 280 kts 118°
2026-05-04 13:00 49.86716 8.80129 6298 ft 285 kts 120°
2026-05-04 13:01 49.85779 8.82813 7042 ft 282 kts 120°
2026-05-04 13:01 49.84829 8.85458 7724 ft 281 kts 121°
2026-05-04 13:01 49.83871 8.88107 8314 ft 282 kts 122°
2026-05-04 13:01 49.82909 8.90760 8959 ft 283 kts 122°
2026-05-04 13:02 49.81944 8.93417 9569 ft 283 kts 122°
2026-05-04 13:02 49.80978 8.96075 10168 ft 284 kts 122°
2026-05-04 13:02 49.79984 8.98803 10460 ft 300 kts 122°
2026-05-04 13:02 49.79251 9.00805 10585 ft 317 kts 122°
2026-05-04 13:03 49.78429 9.03056 10683 ft 334 kts 122°
2026-05-04 13:03 49.77249 9.06286 10840 ft 355 kts 122°
2026-05-04 13:03 49.76066 9.09717 11164 ft 366 kts 115°
2026-05-04 13:03 49.75308 9.13560 11572 ft 379 kts 105°
2026-05-04 13:04 49.74746 9.17574 12291 ft 383 kts 104°
2026-05-04 13:04 49.74171 9.21604 13133 ft 385 kts 105°
2026-05-04 13:04 49.73550 9.25652 13871 ft 390 kts 105°
2026-05-04 13:04 49.72895 9.29758 14507 ft 395 kts 106°
2026-05-04 13:05 49.72223 9.33895 15167 ft 399 kts 106°
2026-05-04 13:05 49.71542 9.38072 15828 ft 403 kts 106°
2026-05-04 13:05 49.70849 9.42299 16473 ft 408 kts 107°
2026-05-04 13:05 49.70148 9.46569 17110 ft 412 kts 107°
2026-05-04 13:06 49.69440 9.50887 17727 ft 417 kts 107°
2026-05-04 13:06 49.68723 9.55258 18338 ft 422 kts 107°
2026-05-04 13:06 49.67994 9.59671 18890 ft 426 kts 107°
2026-05-04 13:06 49.67275 9.64116 19442 ft 427 kts 104°
2026-05-04 13:07 49.67093 9.68742 19815 ft 441 kts 84°
2026-05-04 13:07 49.67864 9.73341 20245 ft 445 kts 74°
2026-05-04 13:07 49.68778 9.77935 20695 ft 450 kts 76°
2026-05-04 13:07 49.69636 9.82601 21256 ft 453 kts 76°
2026-05-04 13:08 49.70466 9.87309 21845 ft 455 kts 77°
2026-05-04 13:08 49.71293 9.92043 22385 ft 457 kts 76°
2026-05-04 13:08 49.72435 9.96669 22742 ft 466 kts 60°
2026-05-04 13:08 49.74279 10.00814 23115 ft 470 kts 54°
2026-05-04 13:09 49.76253 10.04874 23579 ft 475 kts 53°
2026-05-04 13:09 49.78244 10.08968 24020 ft 477 kts 54°
2026-05-04 13:09 49.80227 10.13110 24451 ft 480 kts 54°
2026-05-04 13:09 49.82197 10.17305 24874 ft 483 kts 54°
2026-05-04 13:10 49.84161 10.21550 25267 ft 487 kts 55°
2026-05-04 13:10 49.86108 10.25791 25639 ft 490 kts 55°
2026-05-04 13:10 49.88085 10.30118 26018 ft 494 kts 55°
2026-05-04 13:10 49.90073 10.34475 26402 ft 496 kts 55°
2026-05-04 13:11 49.92076 10.38869 26785 ft 500 kts 55°
2026-05-04 13:11 49.94087 10.43284 27153 ft 503 kts 55°
2026-05-04 13:11 49.96110 10.47729 27502 ft 506 kts 55°
2026-05-04 13:11 49.98145 10.52208 27856 ft 508 kts 55°
2026-05-04 13:12 50.00187 10.56709 28210 ft 511 kts 55°
2026-05-04 13:12 50.02239 10.61239 28550 ft 514 kts 55°
2026-05-04 13:12 50.04271 10.65812 28840 ft 513 kts 59°
2026-05-04 13:12 50.05737 10.70886 28922 ft 516 kts 77°
2026-05-04 13:13 50.06201 10.76400 29181 ft 513 kts 93°
2026-05-04 13:13 50.05801 10.81869 29545 ft 507 kts 108°
2026-05-04 13:13 50.04725 10.87041 29887 ft 501 kts 112°
2026-05-04 13:13 50.03560 10.92152 30216 ft 502 kts 112°
2026-05-04 13:14 50.02408 10.97276 30576 ft 501 kts 112°
2026-05-04 13:14 50.01293 11.02377 30913 ft 501 kts 111°
2026-05-04 13:14 50.00199 11.07490 30951 ft 505 kts 111°
2026-05-04 13:15 49.98014 11.17842 30971 ft 500 kts 111°
2026-05-04 13:15 49.95833 11.28065 30980 ft 498 kts 111°
2026-05-04 13:16 49.93644 11.38268 30995 ft 498 kts 111°
2026-05-04 13:16 49.91597 11.48551 30993 ft 500 kts 108°
2026-05-04 13:17 49.89787 11.58970 30981 ft 500 kts 108°
2026-05-04 13:17 49.88009 11.69340 30983 ft 502 kts 103°
2026-05-04 13:18 49.87043 11.80096 30982 ft 504 kts 99°
2026-05-04 13:18 49.86156 11.90881 30983 ft 505 kts 100°
2026-05-04 13:19 49.85189 12.01677 30983 ft 506 kts 100°
2026-05-04 13:19 49.84191 12.12477 30977 ft 507 kts 100°
2026-05-04 13:20 49.83188 12.23282 30974 ft 507 kts 100°
2026-05-04 13:20 49.82196 12.34097 30980 ft 507 kts 100°
2026-05-04 13:21 49.81178 12.44904 30976 ft 507 kts 102°
2026-05-04 13:21 49.79347 12.55392 30982 ft 504 kts 110°
2026-05-04 13:22 49.77202 12.65731 30980 ft 505 kts 110°
2026-05-04 13:22 49.75070 12.76070 30978 ft 505 kts 110°
2026-05-04 13:23 49.72957 12.86430 30981 ft 505 kts 109°
2026-05-04 13:23 49.70846 12.96783 30984 ft 505 kts 109°
2026-05-04 13:24 49.68737 13.07076 30987 ft 505 kts 109°
2026-05-04 13:24 49.66609 13.17403 30993 ft 504 kts 109°
2026-05-04 13:25 49.63397 13.32874 30995 ft 504 kts 109°
2026-05-04 13:25 49.61249 13.43158 30991 ft 503 kts 109°
2026-05-04 13:26 49.59107 13.53350 30988 ft 503 kts 109°
2026-05-04 13:26 49.56944 13.63601 30978 ft 503 kts 109°
2026-05-04 13:27 49.54772 13.73839 30980 ft 503 kts 109°
2026-05-04 13:27 49.52588 13.84081 30979 ft 503 kts 109°
2026-05-04 13:28 49.50397 13.94309 30978 ft 503 kts 109°
2026-05-04 13:28 49.48199 14.04515 30980 ft 503 kts 109°
2026-05-04 13:29 49.45988 14.14734 30985 ft 503 kts 109°
2026-05-04 13:29 49.43771 14.24921 30978 ft 503 kts 110°
2026-05-04 13:30 49.41556 14.35054 30975 ft 503 kts 110°
2026-05-04 13:30 49.39321 14.45230 30985 ft 503 kts 110°
2026-05-04 13:31 49.37078 14.55399 30979 ft 503 kts 110°
2026-05-04 13:31 49.34821 14.65572 30979 ft 503 kts 110°
2026-05-04 13:32 49.32574 14.75658 30976 ft 503 kts 110°
2026-05-04 13:32 49.30303 14.85803 30977 ft 503 kts 110°
2026-05-04 13:33 49.28024 14.95937 30978 ft 503 kts 110°
2026-05-04 13:33 49.25744 15.06083 30981 ft 503 kts 110°
2026-05-04 13:34 49.23471 15.16205 30975 ft 503 kts 110°
2026-05-04 13:34 49.21187 15.26329 30979 ft 503 kts 110°
2026-05-04 13:35 49.17765 15.41391 30979 ft 502 kts 110°
2026-05-04 13:36 49.15463 15.51467 30983 ft 502 kts 110°
2026-05-04 13:36 49.13153 15.61524 30987 ft 502 kts 110°
2026-05-04 13:37 49.10834 15.71572 30995 ft 501 kts 110°
2026-05-04 13:37 49.08510 15.81600 31003 ft 501 kts 110°
2026-05-04 13:38 49.06178 15.91615 31013 ft 500 kts 110°
2026-05-04 13:38 49.03842 16.01599 31009 ft 500 kts 110°
2026-05-04 13:39 49.01500 16.11564 31012 ft 499 kts 110°
2026-05-04 13:39 48.99152 16.21506 31007 ft 499 kts 110°
2026-05-04 13:40 48.96797 16.31432 30997 ft 498 kts 110°
2026-05-04 13:40 48.94454 16.41261 30988 ft 498 kts 110°
2026-05-04 13:41 48.92085 16.51158 30990 ft 497 kts 110°
2026-05-04 13:41 48.89709 16.61042 30990 ft 498 kts 110°
2026-05-04 13:42 48.86531 16.74194 30990 ft 498 kts 110°
2026-05-04 13:42 48.83725 16.85738 30990 ft 499 kts 110°
2026-05-04 13:43 48.81721 16.93949 30995 ft 499 kts 110°
2026-05-04 13:43 48.79300 17.03832 30996 ft 500 kts 110°
2026-05-04 13:44 48.76716 17.13615 31000 ft 499 kts 114°
2026-05-04 13:44 48.73902 17.23237 31004 ft 499 kts 114°
2026-05-04 13:45 48.71071 17.32834 30998 ft 499 kts 114°
2026-05-04 13:45 48.68249 17.42440 31016 ft 499 kts 114°
2026-05-04 13:46 48.65449 17.51986 31007 ft 491 kts 114°
2026-05-04 13:46 48.62664 17.61440 31055 ft 496 kts 114°
2026-05-04 13:47 48.61273 17.66154 31319 ft 497 kts 114°
2026-05-04 13:47 48.59862 17.70924 31668 ft 496 kts 114°
2026-05-04 13:47 48.58454 17.75671 32095 ft 494 kts 114°
2026-05-04 13:47 48.57050 17.80393 32487 ft 492 kts 114°
2026-05-04 13:48 48.55650 17.85094 32906 ft 490 kts 114°
2026-05-04 13:48 48.54249 17.89793 32928 ft 491 kts 114°
2026-05-04 13:48 48.51472 17.99081 33027 ft 486 kts 114°
2026-05-04 13:49 48.48672 18.08407 33029 ft 487 kts 114°
2026-05-04 13:49 48.45874 18.17688 33043 ft 489 kts 114°
2026-05-04 13:50 48.43069 18.26959 33047 ft 486 kts 114°
2026-05-04 13:50 48.40245 18.36260 33033 ft 488 kts 114°
2026-05-04 13:51 48.37441 18.45461 33042 ft 486 kts 114°
2026-05-04 13:51 48.34611 18.54709 33046 ft 486 kts 114°
2026-05-04 13:52 48.30349 18.68577 33061 ft 486 kts 114°
2026-05-04 13:53 48.27508 18.77777 33055 ft 486 kts 114°
2026-05-04 13:53 48.24671 18.86933 33066 ft 487 kts 114°
2026-05-04 13:54 48.20356 19.00792 33076 ft 492 kts 114°
2026-05-04 13:55 48.15985 19.14754 33068 ft 494 kts 114°
2026-05-04 13:55 48.11592 19.28713 33071 ft 494 kts 114°
2026-05-04 13:56 48.08659 19.37987 33069 ft 492 kts 114°
2026-05-04 13:57 48.04218 19.51736 33071 ft 490 kts 114°
2026-05-04 13:58 47.98263 19.70023 33074 ft 488 kts 114°
2026-05-04 13:58 47.93797 19.83684 33075 ft 488 kts 114°
2026-05-04 13:59 47.90807 19.92788 33071 ft 489 kts 114°
2026-05-04 14:00 47.86308 20.06422 33070 ft 489 kts 114°
2026-05-04 14:00 47.81808 20.19991 33085 ft 489 kts 114°
2026-05-04 14:01 47.78786 20.29062 33082 ft 489 kts 114°
2026-05-04 14:02 47.74235 20.42663 33079 ft 490 kts 114°
2026-05-04 14:02 47.71191 20.51716 33068 ft 490 kts 114°
2026-05-04 14:03 47.68141 20.60763 33079 ft 490 kts 114°
2026-05-04 14:03 47.65083 20.69798 33079 ft 490 kts 114°
2026-05-04 14:04 47.60508 20.83257 33063 ft 489 kts 114°
2026-05-04 14:04 47.57438 20.92249 33085 ft 489 kts 114°
2026-05-04 14:05 47.52828 21.05696 33075 ft 488 kts 115°
2026-05-04 14:06 47.49747 21.14642 33080 ft 487 kts 115°
2026-05-04 14:06 47.46663 21.23567 33084 ft 487 kts 115°
2026-05-04 14:07 47.43591 21.32428 33073 ft 487 kts 115°
2026-05-04 14:07 47.40496 21.41327 33077 ft 487 kts 115°
2026-05-04 14:08 47.37390 21.50225 33076 ft 487 kts 115°
2026-05-04 14:08 47.34279 21.59106 33080 ft 487 kts 115°
2026-05-04 14:09 47.29600 21.72414 33081 ft 487 kts 115°
2026-05-04 14:10 47.24930 21.85726 33093 ft 487 kts 112°
2026-05-04 14:10 47.22552 21.94931 33102 ft 484 kts 107°
2026-05-04 14:11 47.20245 22.04228 33095 ft 485 kts 111°
2026-05-04 14:11 47.16969 22.12932 33098 ft 489 kts 122°
2026-05-04 14:11 47.15035 22.17030 33102 ft 489 kts 123°
2026-05-04 14:12 47.11136 22.25228 33097 ft 489 kts 122°
2026-05-04 14:13 47.05336 22.37546 33089 ft 489 kts 122°
2026-05-04 14:13 47.01486 22.45751 33089 ft 488 kts 122°
2026-05-04 14:14 46.97637 22.53933 33091 ft 488 kts 122°
2026-05-04 14:14 46.91879 22.66114 33093 ft 487 kts 122°
2026-05-04 14:15 46.84155 22.82375 33091 ft 486 kts 122°
2026-05-04 14:16 46.78357 22.94520 33090 ft 485 kts 122°
2026-05-04 14:17 46.72584 23.06572 33085 ft 485 kts 122°
2026-05-04 14:18 46.66806 23.18670 33078 ft 485 kts 122°
2026-05-04 14:19 46.59092 23.34757 33080 ft 485 kts 123°
2026-05-04 14:19 46.55223 23.42784 33079 ft 485 kts 123°
2026-05-04 14:20 46.51347 23.50808 33065 ft 485 kts 123°
2026-05-04 14:20 46.47470 23.58809 33071 ft 484 kts 123°
2026-05-04 14:21 46.41642 23.70786 33054 ft 484 kts 123°
2026-05-04 14:21 46.37779 23.78699 33030 ft 484 kts 123°
2026-05-04 14:22 46.33884 23.86658 33026 ft 484 kts 123°
2026-05-04 14:22 46.29987 23.94596 33030 ft 484 kts 123°
2026-05-04 14:23 46.24130 24.06484 33028 ft 484 kts 123°
2026-05-04 14:24 46.20220 24.14392 33037 ft 483 kts 124°
2026-05-04 14:24 46.16305 24.22290 33024 ft 483 kts 124°
2026-05-04 14:25 46.12416 24.30112 33033 ft 483 kts 124°
2026-05-04 14:25 46.06534 24.41902 33027 ft 483 kts 124°
2026-05-04 14:26 46.02596 24.49768 33023 ft 484 kts 124°
2026-05-04 14:26 45.98660 24.57610 33030 ft 484 kts 124°
2026-05-04 14:27 45.94712 24.65454 33029 ft 484 kts 125°
2026-05-04 14:27 45.90763 24.73279 33032 ft 484 kts 126°
2026-05-04 14:28 45.86829 24.81051 33036 ft 484 kts 126°
2026-05-04 14:28 45.82831 24.88829 33037 ft 484 kts 127°
2026-05-04 14:29 45.74749 25.04291 33040 ft 485 kts 128°
2026-05-04 14:30 45.70704 25.12022 33043 ft 485 kts 128°
2026-05-04 14:31 45.64619 25.23621 33047 ft 486 kts 128°
2026-05-04 14:32 45.56498 25.39027 33049 ft 488 kts 128°
2026-05-04 14:32 45.52405 25.46762 33053 ft 488 kts 128°
2026-05-04 14:33 45.48301 25.54494 33051 ft 488 kts 128°
2026-05-04 14:33 45.44194 25.62210 33045 ft 489 kts 128°
2026-05-04 14:34 45.40770 25.68628 33046 ft 488 kts 128°
2026-05-04 14:34 45.36656 25.76321 33044 ft 488 kts 128°
2026-05-04 14:35 45.31868 25.85243 33040 ft 488 kts 128°
2026-05-04 14:35 45.28426 25.91644 33038 ft 486 kts 128°
2026-05-04 14:36 45.24324 25.99256 33036 ft 484 kts 128°
2026-05-04 14:36 45.20229 26.06829 33025 ft 483 kts 128°
2026-05-04 14:37 45.16143 26.14367 33027 ft 481 kts 128°
2026-05-04 14:37 45.12070 26.21862 33021 ft 479 kts 128°
2026-05-04 14:38 45.08002 26.29328 33025 ft 478 kts 128°
2026-05-04 14:38 45.03960 26.36731 33025 ft 478 kts 127°
2026-05-04 14:39 44.99895 26.44155 33026 ft 478 kts 127°
2026-05-04 14:39 44.95895 26.51656 33028 ft 478 kts 126°
2026-05-04 14:40 44.89936 26.62986 33023 ft 479 kts 126°
2026-05-04 14:40 44.85953 26.70513 33021 ft 479 kts 127°
2026-05-04 14:41 44.81986 26.77968 33020 ft 478 kts 127°
2026-05-04 14:42 44.73997 26.92915 33022 ft 477 kts 127°
2026-05-04 14:42 44.70004 27.00359 33022 ft 476 kts 127°
2026-05-04 14:43 44.66012 27.07780 33020 ft 475 kts 127°
2026-05-04 14:43 44.62045 27.15138 33022 ft 475 kts 127°
2026-05-04 14:44 44.58054 27.22519 33018 ft 475 kts 127°
2026-05-04 14:44 44.54056 27.29899 33016 ft 475 kts 126°
2026-05-04 14:45 44.50049 27.37274 33030 ft 476 kts 126°
2026-05-04 14:45 44.46030 27.44648 33024 ft 476 kts 126°
2026-05-04 14:46 44.42002 27.52024 33027 ft 476 kts 126°
2026-05-04 14:46 44.37975 27.59378 33027 ft 476 kts 126°
2026-05-04 14:47 44.33953 27.66709 33023 ft 475 kts 126°
2026-05-04 14:47 44.29931 27.74016 33024 ft 474 kts 126°
2026-05-04 14:48 44.25935 27.81258 33024 ft 473 kts 126°
2026-05-04 14:48 44.21913 27.88529 33023 ft 473 kts 126°
2026-05-04 14:49 44.17887 27.95790 33020 ft 473 kts 126°
2026-05-04 14:49 44.13853 28.03049 33017 ft 474 kts 126°
2026-05-04 14:50 44.09808 28.10305 33025 ft 475 kts 126°
2026-05-04 14:50 44.05739 28.17590 33020 ft 478 kts 126°
2026-05-04 14:51 44.01672 28.24851 33029 ft 480 kts 126°
2026-05-04 14:51 43.97564 28.32168 33028 ft 481 kts 126°
2026-05-04 14:52 43.93437 28.39501 33029 ft 482 kts 126°
2026-05-04 14:52 43.89298 28.46835 33025 ft 481 kts 126°
2026-05-04 14:53 43.85174 28.54124 33027 ft 480 kts 126°
2026-05-04 14:53 43.81052 28.61392 33026 ft 479 kts 126°
2026-05-04 14:54 43.76944 28.68619 33023 ft 477 kts 126°
2026-05-04 14:54 43.72844 28.75818 33016 ft 475 kts 125°
2026-05-04 14:55 43.68793 28.82948 33022 ft 474 kts 124°
2026-05-04 14:55 43.64922 28.90299 33018 ft 472 kts 122°
2026-05-04 14:56 43.61120 28.97690 33021 ft 472 kts 122°
2026-05-04 14:56 43.57286 29.05066 33016 ft 472 kts 122°
2026-05-04 14:57 43.53456 29.12357 33016 ft 473 kts 122°
2026-05-04 14:57 43.49590 29.19681 33005 ft 473 kts 122°
2026-05-04 14:58 43.45713 29.27005 33007 ft 473 kts 122°
2026-05-04 14:58 43.41829 29.34329 33005 ft 473 kts 122°
2026-05-04 14:59 43.37946 29.41633 32988 ft 472 kts 122°
2026-05-04 15:00 43.32120 29.52558 32988 ft 471 kts 122°
2026-05-04 15:00 43.28245 29.59805 32991 ft 470 kts 122°
2026-05-04 15:01 43.22460 29.70587 32991 ft 469 kts 122°
2026-05-04 15:01 43.18589 29.77780 32994 ft 469 kts 121°
2026-05-04 15:02 43.14713 29.84966 32983 ft 469 kts 121°
2026-05-04 15:02 43.10838 29.92133 32957 ft 468 kts 121°
2026-05-04 15:03 43.06974 29.99260 32969 ft 465 kts 121°
2026-05-04 15:03 43.03120 30.06353 32961 ft 464 kts 121°
2026-05-04 15:04 42.99264 30.13435 32958 ft 464 kts 121°
2026-05-04 15:04 42.95408 30.20498 32948 ft 464 kts 121°
2026-05-04 15:05 42.91574 30.27506 32959 ft 464 kts 121°
2026-05-04 15:05 42.87706 30.34558 32942 ft 465 kts 121°
2026-05-04 15:06 42.83827 30.41615 32938 ft 465 kts 121°
2026-05-04 15:07 42.77999 30.52188 32924 ft 465 kts 121°
2026-05-04 15:07 42.74547 30.59525 32941 ft 455 kts 110°
2026-05-04 15:08 42.72280 30.67476 32920 ft 447 kts 99°
2026-05-04 15:08 42.70712 30.75639 32927 ft 446 kts 99°
2026-05-04 15:09 42.69160 30.83762 32915 ft 447 kts 99°
2026-05-04 15:09 42.67569 30.91940 32909 ft 448 kts 99°
2026-05-04 15:10 42.65148 31.04201 32901 ft 448 kts 99°
2026-05-04 15:11 42.62709 31.16462 32900 ft 448 kts 99°
2026-05-04 15:11 42.61076 31.24637 32883 ft 448 kts 99°
2026-05-04 15:12 42.59436 31.32811 32888 ft 448 kts 99°
2026-05-04 15:12 42.57791 31.40977 32878 ft 448 kts 99°
2026-05-04 15:13 42.56142 31.49128 32876 ft 448 kts 99°
2026-05-04 15:13 42.54487 31.57278 32874 ft 448 kts 99°
2026-05-04 15:14 42.52836 31.65374 32874 ft 448 kts 99°
2026-05-04 15:14 42.51169 31.73522 32869 ft 448 kts 100°
2026-05-04 15:15 42.49494 31.81668 32866 ft 449 kts 100°
2026-05-04 15:15 42.47809 31.89834 32865 ft 449 kts 100°
2026-05-04 15:16 42.45277 32.02047 32865 ft 449 kts 100°
2026-05-04 15:17 42.42732 32.14247 32863 ft 449 kts 101°
2026-05-04 15:17 42.40184 32.26392 32867 ft 449 kts 101°
2026-05-04 15:18 42.38461 32.34566 32857 ft 449 kts 101°
2026-05-04 15:19 42.35884 32.46737 32866 ft 449 kts 101°
2026-05-04 15:19 42.33413 32.58873 32868 ft 446 kts 97°
2026-05-04 15:20 42.32615 32.67124 32877 ft 442 kts 92°
2026-05-04 15:20 42.31942 32.75381 32874 ft 443 kts 92°
2026-05-04 15:21 42.31245 32.83646 32874 ft 443 kts 92°
2026-05-04 15:22 42.30172 32.96053 32876 ft 443 kts 93°
2026-05-04 15:22 42.29205 33.07054 32871 ft 443 kts 93°
2026-05-04 15:23 42.28471 33.15326 32867 ft 443 kts 93°
2026-05-04 15:23 42.27613 33.24915 32866 ft 442 kts 93°
2026-05-04 15:24 42.26244 33.40038 32873 ft 441 kts 93°
2026-05-04 15:25 42.25495 33.48209 32874 ft 441 kts 94°
2026-05-04 15:26 42.24356 33.60520 32876 ft 440 kts 94°
2026-05-04 15:26 42.23204 33.72829 32881 ft 440 kts 94°
2026-05-04 15:27 42.22044 33.85085 32878 ft 441 kts 94°
2026-05-04 15:28 42.20865 33.97393 32881 ft 441 kts 94°
2026-05-04 15:29 42.19671 34.09713 32875 ft 442 kts 94°
2026-05-04 15:30 42.16824 34.38532 32882 ft 445 kts 95°
2026-05-04 15:31 42.15576 34.50937 32882 ft 446 kts 95°
2026-05-04 15:32 42.13456 34.71698 32885 ft 448 kts 96°
2026-05-04 15:34 42.11295 34.92478 32886 ft 450 kts 96°
2026-05-04 15:34 42.09974 35.04998 32888 ft 451 kts 96°
2026-05-04 15:35 42.08636 35.17551 32886 ft 452 kts 97°
2026-05-04 15:36 42.07281 35.30126 32888 ft 453 kts 97°
2026-05-04 15:36 42.06373 35.38477 32888 ft 454 kts 97°
2026-05-04 15:37 42.05451 35.46894 32888 ft 455 kts 97°
2026-05-04 15:37 42.04521 35.55332 32884 ft 456 kts 97°
2026-05-04 15:38 42.03582 35.63790 32889 ft 457 kts 97°
2026-05-04 15:38 42.02636 35.72255 32887 ft 458 kts 98°
2026-05-04 15:39 42.01682 35.80733 32888 ft 459 kts 98°
2026-05-04 15:40 42.00244 35.93405 32890 ft 459 kts 98°
2026-05-04 15:40 41.99272 36.01893 32886 ft 459 kts 98°
2026-05-04 15:41 41.98294 36.10379 32887 ft 460 kts 98°
2026-05-04 15:41 41.97309 36.18874 32888 ft 460 kts 98°
2026-05-04 15:42 41.96317 36.27371 32889 ft 461 kts 98°
2026-05-04 15:42 41.95316 36.35884 32886 ft 461 kts 99°
2026-05-04 15:43 41.94309 36.44394 32888 ft 462 kts 99°
2026-05-04 15:43 41.93294 36.52920 32888 ft 462 kts 99°
2026-05-04 15:44 41.92271 36.61449 32886 ft 463 kts 99°
2026-05-04 15:44 41.91248 36.69933 32885 ft 463 kts 99°
2026-05-04 15:45 41.90210 36.78476 32885 ft 464 kts 99°
2026-05-04 15:45 41.89165 36.87031 32881 ft 465 kts 99°
2026-05-04 15:46 41.88111 36.95596 32882 ft 465 kts 99°
2026-05-04 15:46 41.87049 37.04179 32882 ft 466 kts 99°
2026-05-04 15:47 41.85979 37.12768 32881 ft 467 kts 100°
2026-05-04 15:47 41.84906 37.21323 32881 ft 468 kts 100°
2026-05-04 15:48 41.83820 37.29934 32882 ft 468 kts 100°
2026-05-04 15:48 41.82176 37.42867 32881 ft 470 kts 100°
2026-05-04 15:49 41.81070 37.51499 32879 ft 470 kts 100°
2026-05-04 15:49 41.79956 37.60142 32877 ft 471 kts 101°
2026-05-04 15:50 41.78835 37.68785 32877 ft 471 kts 101°
2026-05-04 15:50 41.77706 37.77437 32879 ft 471 kts 101°
2026-05-04 15:51 41.76569 37.86095 32875 ft 472 kts 101°
2026-05-04 15:51 41.75425 37.94752 32878 ft 472 kts 101°
2026-05-04 15:52 41.74274 38.03415 32876 ft 472 kts 101°
2026-05-04 15:52 41.73124 38.12016 32871 ft 473 kts 101°
2026-05-04 15:53 41.71958 38.20684 32866 ft 473 kts 101°
2026-05-04 15:53 41.70784 38.29366 32878 ft 473 kts 101°
2026-05-04 15:54 41.69602 38.38049 32874 ft 474 kts 101°
2026-05-04 15:54 41.68414 38.46727 32861 ft 474 kts 102°
2026-05-04 15:55 41.67219 38.55407 32863 ft 475 kts 102°
2026-05-04 15:55 41.66024 38.64035 32855 ft 475 kts 102°
2026-05-04 15:56 41.64813 38.72726 32860 ft 475 kts 102°
2026-05-04 15:56 41.63596 38.81416 32854 ft 475 kts 102°
2026-05-04 15:57 41.62372 38.90100 32860 ft 475 kts 102°
2026-05-04 15:57 41.61140 38.98790 32863 ft 476 kts 102°
2026-05-04 15:58 41.59909 39.07426 32860 ft 476 kts 102°
2026-05-04 15:58 41.58664 39.16116 32869 ft 476 kts 102°
2026-05-04 15:59 41.57409 39.24823 32866 ft 477 kts 103°
2026-05-04 15:59 41.56147 39.33527 32871 ft 477 kts 103°
2026-05-04 16:00 41.54878 39.42234 32865 ft 478 kts 103°
2026-05-04 16:00 41.53607 39.50905 32867 ft 479 kts 103°
2026-05-04 16:01 41.52321 39.59632 32869 ft 480 kts 103°
2026-05-04 16:01 41.51026 39.68365 32863 ft 480 kts 103°
2026-05-04 16:02 41.49722 39.77120 32869 ft 481 kts 103°
2026-05-04 16:03 41.47757 39.90217 32865 ft 480 kts 103°
2026-05-04 16:03 41.46438 39.98949 32857 ft 480 kts 104°
2026-05-04 16:04 41.45110 40.07687 32851 ft 481 kts 104°
2026-05-04 16:04 41.43103 40.20813 32850 ft 482 kts 104°
2026-05-04 16:05 41.41753 40.29583 32846 ft 483 kts 104°
2026-05-04 16:06 41.39724 40.42680 32845 ft 483 kts 104°
2026-05-04 16:07 41.36983 40.60209 32845 ft 483 kts 104°
2026-05-04 16:08 41.34216 40.77716 32854 ft 483 kts 105°
2026-05-04 16:09 41.30729 40.99523 32859 ft 483 kts 105°
2026-05-04 16:10 41.27899 41.17015 32860 ft 484 kts 106°
2026-05-04 16:11 41.25044 41.34493 32862 ft 484 kts 106°
2026-05-04 16:12 41.20724 41.60602 32838 ft 483 kts 107°
2026-05-04 16:13 41.18049 41.76562 32857 ft 484 kts 107°
2026-05-04 16:14 41.15100 41.94017 32846 ft 485 kts 108°
2026-05-04 16:16 41.11386 42.15744 32864 ft 480 kts 108°
2026-05-04 16:17 41.07658 42.37292 32872 ft 482 kts 108°
2026-05-04 16:18 41.04628 42.54615 32877 ft 482 kts 108°
2026-05-04 16:19 41.00816 42.76184 32871 ft 481 kts 109°
2026-05-04 16:20 40.96956 42.97774 32884 ft 483 kts 109°
2026-05-04 16:22 40.93055 43.19341 32877 ft 484 kts 109°
2026-05-04 16:23 40.88299 43.45316 32870 ft 485 kts 109°
2026-05-04 16:25 40.83602 43.71352 32878 ft 488 kts 105°
2026-05-04 16:26 40.79994 44.02496 32885 ft 492 kts 106°
2026-05-04 16:28 40.77302 44.24813 32876 ft 493 kts 107°
2026-05-04 16:29 40.73436 44.56292 32818 ft 499 kts 107°
2026-05-04 16:31 40.70608 44.78864 32806 ft 502 kts 107°
2026-05-04 16:32 40.67129 45.06109 32788 ft 503 kts 107°
2026-05-04 16:33 40.64790 45.24203 32802 ft 501 kts 107°
2026-05-04 16:34 40.63016 45.37735 32808 ft 499 kts 107°
2026-05-04 16:35 40.59430 45.64677 32811 ft 497 kts 107°
2026-05-04 16:36 40.57621 45.78083 32815 ft 497 kts 107°
2026-05-04 16:37 40.55802 45.91436 32834 ft 496 kts 107°
2026-05-04 16:38 40.53345 46.09294 32818 ft 497 kts 107°
2026-05-04 16:39 40.50235 46.31627 32816 ft 499 kts 107°
2026-05-04 16:40 40.47702 46.49598 32834 ft 501 kts 107°
2026-05-04 16:41 40.44484 46.72146 32849 ft 503 kts 107°
2026-05-04 16:43 40.41225 46.94644 32850 ft 503 kts 107°
2026-05-04 16:43 40.39241 47.08187 32852 ft 504 kts 107°
2026-05-04 16:45 40.35215 47.35321 32861 ft 506 kts 107°
2026-05-04 16:46 40.31797 47.58002 32862 ft 508 kts 107°
2026-05-04 16:47 40.29019 47.76207 32866 ft 510 kts 107°
2026-05-04 16:48 40.26206 47.94441 32849 ft 511 kts 108°
2026-05-04 16:49 40.23367 48.12648 32848 ft 512 kts 108°
2026-05-04 16:50 40.20489 48.30897 32847 ft 512 kts 108°
2026-05-04 16:51 40.18310 48.44585 32849 ft 513 kts 108°
2026-05-04 16:52 40.15384 48.62805 32850 ft 514 kts 108°
2026-05-04 16:53 40.13159 48.76537 32853 ft 515 kts 108°
2026-05-04 16:54 40.10144 48.94884 32861 ft 517 kts 108°
2026-05-04 16:55 40.05573 49.22374 32872 ft 518 kts 108°
2026-05-04 16:56 40.01698 49.45354 32885 ft 519 kts 108°
2026-05-04 16:57 39.99347 49.59153 32888 ft 520 kts 109°
2026-05-04 16:58 39.96185 49.77546 32889 ft 522 kts 109°
2026-05-04 17:00 39.91360 50.05266 32897 ft 523 kts 109°
2026-05-04 17:01 39.87283 50.28363 33334 ft 524 kts 109°
2026-05-04 17:01 39.85655 50.37522 34069 ft 521 kts 109°
2026-05-04 17:02 39.84291 50.45153 34512 ft 520 kts 109°
2026-05-04 17:02 39.82360 50.55886 34843 ft 523 kts 109°
2026-05-04 17:03 39.81808 50.58944 34863 ft 523 kts 109°
2026-05-04 17:03 39.79314 50.72721 34894 ft 520 kts 109°
2026-05-04 17:04 39.75978 50.90987 34889 ft 518 kts 109°
2026-05-04 17:05 39.72624 51.09165 34905 ft 520 kts 109°
2026-05-04 17:06 39.70073 51.22886 34902 ft 522 kts 109°
2026-05-04 17:07 39.67776 51.35159 34901 ft 523 kts 109°
2026-05-04 17:07 39.65769 51.45833 34898 ft 524 kts 109°
2026-05-04 17:08 39.63548 51.59749 34895 ft 526 kts 105°
2026-05-04 17:09 39.62279 51.69091 34893 ft 526 kts 105°
2026-05-04 17:09 39.60998 51.78380 34892 ft 525 kts 105°
2026-05-04 17:10 39.57684 52.01629 34886 ft 524 kts 105°
2026-05-04 17:11 39.56344 52.10912 34890 ft 524 kts 105°
2026-05-04 17:12 39.54321 52.24836 34890 ft 524 kts 105°
2026-05-04 17:13 39.50905 52.48076 34882 ft 526 kts 105°
2026-05-04 17:14 39.48142 52.66638 34877 ft 527 kts 105°
2026-05-04 17:15 39.46038 52.80627 34875 ft 528 kts 105°
2026-05-04 17:16 39.43208 52.99263 34880 ft 528 kts 105°
2026-05-04 17:17 39.40347 53.17896 34866 ft 528 kts 105°
2026-05-04 17:18 39.37463 53.36456 34862 ft 528 kts 105°
2026-05-04 17:19 39.34543 53.55057 34846 ft 528 kts 105°
2026-05-04 17:20 39.31603 53.73569 34860 ft 528 kts 105°
2026-05-04 17:20 39.29373 53.87487 34842 ft 528 kts 105°
2026-05-04 17:21 39.26370 54.06053 34847 ft 528 kts 105°
2026-05-04 17:22 39.24856 54.15337 34838 ft 528 kts 105°
2026-05-04 17:23 39.21815 54.33839 34835 ft 529 kts 105°
2026-05-04 17:24 39.19503 54.47785 34830 ft 530 kts 105°
2026-05-04 17:25 39.16391 54.66355 34826 ft 530 kts 105°
2026-05-04 17:26 39.13239 54.84933 34822 ft 531 kts 105°
2026-05-04 17:27 39.09264 55.08124 34834 ft 530 kts 105°
2026-05-04 17:28 39.06061 55.26597 34826 ft 530 kts 105°
2026-05-04 17:29 39.01183 55.54397 34840 ft 531 kts 105°
2026-05-04 17:31 38.97083 55.77555 34852 ft 531 kts 104°
2026-05-04 17:32 38.92958 56.00608 34845 ft 531 kts 104°
2026-05-04 17:33 38.89614 56.19081 34840 ft 531 kts 104°
2026-05-04 17:34 38.86244 56.37533 34841 ft 531 kts 104°
2026-05-04 17:35 38.81988 56.60576 34835 ft 531 kts 104°
2026-05-04 17:36 38.80287 56.69713 34848 ft 530 kts 104°
2026-05-04 17:36 38.78565 56.78920 34845 ft 531 kts 104°
2026-05-04 17:37 38.76836 56.88119 34845 ft 531 kts 104°
2026-05-04 17:37 38.75100 56.97309 34847 ft 531 kts 104°
2026-05-04 17:38 38.73357 57.06502 34840 ft 531 kts 104°
2026-05-04 17:38 38.71604 57.15697 34844 ft 531 kts 105°
2026-05-04 17:39 38.68964 57.29476 34838 ft 531 kts 105°
2026-05-04 17:39 38.67192 57.38669 34840 ft 532 kts 105°
2026-05-04 17:40 38.65426 57.47790 34835 ft 532 kts 105°
2026-05-04 17:40 38.63641 57.56976 34836 ft 532 kts 105°
2026-05-04 17:41 38.61765 57.66126 34836 ft 532 kts 109°
2026-05-04 17:41 38.58965 57.74847 34836 ft 530 kts 116°
2026-05-04 17:42 38.55874 57.83403 34830 ft 530 kts 116°
2026-05-04 17:42 38.52816 57.91981 34830 ft 531 kts 116°
2026-05-04 17:43 38.49785 58.00585 34833 ft 531 kts 116°
2026-05-04 17:43 38.46750 58.09188 34831 ft 531 kts 116°
2026-05-04 17:44 38.43726 58.17723 34832 ft 531 kts 116°
2026-05-04 17:44 38.40674 58.26304 34832 ft 531 kts 116°
2026-05-04 17:45 38.37145 58.34533 34836 ft 528 kts 123°
2026-05-04 17:45 38.33315 58.42520 34829 ft 528 kts 123°
2026-05-04 17:46 38.29491 58.50506 34836 ft 528 kts 123°
2026-05-04 17:46 38.25690 58.58519 34834 ft 529 kts 123°
2026-05-04 17:47 38.21894 58.66534 34837 ft 529 kts 123°
2026-05-04 17:47 38.18091 58.74543 34837 ft 529 kts 123°
2026-05-04 17:48 38.14276 58.82549 34837 ft 530 kts 123°
2026-05-04 17:48 38.10452 58.90554 34842 ft 530 kts 123°
2026-05-04 17:49 38.06645 58.98504 34838 ft 530 kts 123°
2026-05-04 17:49 38.02808 59.06497 34844 ft 530 kts 123°
2026-05-04 17:50 37.98964 59.14485 34846 ft 530 kts 123°
2026-05-04 17:50 37.95116 59.22462 34846 ft 530 kts 123°
2026-05-04 17:51 37.91910 59.29096 34848 ft 530 kts 123°
2026-05-04 17:51 37.87211 59.38237 34853 ft 528 kts 129°
2026-05-04 17:52 37.83505 59.44377 34855 ft 528 kts 130°
2026-05-04 17:52 37.79003 59.51738 34856 ft 529 kts 129°
2026-05-04 17:53 37.74519 59.59120 34861 ft 529 kts 129°
2026-05-04 17:53 37.70045 59.66523 34863 ft 530 kts 129°
2026-05-04 17:54 37.65572 59.73918 34865 ft 530 kts 129°
2026-05-04 17:54 37.61086 59.81314 34865 ft 530 kts 129°
2026-05-04 17:55 37.56631 59.88639 34870 ft 530 kts 129°
2026-05-04 17:55 37.52143 59.95999 34873 ft 529 kts 129°
2026-05-04 17:56 37.47653 60.03348 34875 ft 529 kts 129°
2026-05-04 17:56 37.43167 60.10674 34873 ft 528 kts 129°
2026-05-04 17:57 37.38677 60.17990 34886 ft 528 kts 129°
2026-05-04 17:57 37.34186 60.25294 34890 ft 528 kts 129°
2026-05-04 17:58 37.29689 60.32588 34892 ft 527 kts 130°
2026-05-04 17:58 37.25220 60.39823 34893 ft 527 kts 130°
2026-05-04 17:59 37.20718 60.47096 34901 ft 528 kts 130°
2026-05-04 18:00 37.13946 60.58005 34902 ft 529 kts 130°
2026-05-04 18:00 37.09421 60.65274 34903 ft 529 kts 130°
2026-05-04 18:01 37.04886 60.72546 34912 ft 530 kts 130°
2026-05-04 18:01 37.00334 60.79831 34912 ft 531 kts 130°
2026-05-04 18:02 36.93716 60.90975 34914 ft 533 kts 126°
2026-05-04 18:02 36.89477 60.98604 34907 ft 534 kts 126°
2026-05-04 18:03 36.85225 61.06215 34918 ft 535 kts 126°
2026-05-04 18:03 36.80970 61.13764 34921 ft 535 kts 127°
2026-05-04 18:04 36.76675 61.21350 34918 ft 535 kts 127°
2026-05-04 18:05 36.70232 61.32709 34916 ft 534 kts 127°
2026-05-04 18:05 36.65934 61.40270 34924 ft 533 kts 127°
2026-05-04 18:06 36.59475 61.51527 34921 ft 532 kts 127°
2026-05-04 18:06 36.55101 61.58953 34925 ft 531 kts 128°
2026-05-04 18:07 36.50756 61.66305 34926 ft 531 kts 128°
2026-05-04 18:07 36.46363 61.73748 34928 ft 530 kts 128°
2026-05-04 18:08 36.42024 61.81098 34924 ft 530 kts 127°
2026-05-04 18:08 36.37660 61.88475 34948 ft 530 kts 127°
2026-05-04 18:09 36.28903 62.03227 34956 ft 532 kts 127°
2026-05-04 18:10 36.24502 62.10614 34969 ft 533 kts 127°
2026-05-04 18:10 36.20095 62.17998 34954 ft 534 kts 128°
2026-05-04 18:11 36.15670 62.25395 34951 ft 534 kts 128°
2026-05-04 18:11 36.11241 62.32782 34953 ft 535 kts 128°
2026-05-04 18:12 36.06802 62.40171 34970 ft 535 kts 128°
2026-05-04 18:12 36.02362 62.47546 34955 ft 535 kts 128°
2026-05-04 18:13 35.97935 62.54884 34966 ft 535 kts 128°
2026-05-04 18:14 35.91248 62.65938 34958 ft 535 kts 128°
2026-05-04 18:14 35.86792 62.73283 34973 ft 535 kts 128°
2026-05-04 18:15 35.77863 62.87957 34963 ft 535 kts 128°
2026-05-04 18:16 35.73423 62.95231 34982 ft 535 kts 128°
2026-05-04 18:16 35.68946 63.02551 34985 ft 535 kts 128°
2026-05-04 18:17 35.62220 63.13520 34991 ft 536 kts 128°
2026-05-04 18:18 35.55468 63.24464 35000 ft 535 kts 128°
2026-05-04 18:18 35.50928 63.31712 35004 ft 535 kts 128°
2026-05-04 18:19 35.44107 63.42580 35014 ft 536 kts 128°
2026-05-04 18:19 35.39592 63.49770 35026 ft 536 kts 128°
2026-05-04 18:20 35.35011 63.57051 35037 ft 536 kts 128°
2026-05-04 18:20 35.30476 63.64245 35041 ft 537 kts 128°
2026-05-04 18:21 35.25908 63.71486 35049 ft 538 kts 129°
2026-05-04 18:21 35.21333 63.78741 35061 ft 537 kts 128°
2026-05-04 18:22 35.16768 63.85969 35075 ft 537 kts 128°
2026-05-04 18:22 35.12222 63.93152 35078 ft 538 kts 128°
2026-05-04 18:23 35.07639 64.00377 35080 ft 538 kts 129°
2026-05-04 18:23 35.03046 64.07601 35095 ft 537 kts 129°
2026-05-04 18:24 34.98453 64.14811 35096 ft 538 kts 129°
2026-05-04 18:24 34.93861 64.22005 35098 ft 537 kts 129°
2026-05-04 18:25 34.89261 64.29196 35100 ft 538 kts 129°
2026-05-04 18:25 34.84655 64.36383 35105 ft 538 kts 129°
2026-05-04 18:26 34.80052 64.43551 35122 ft 537 kts 129°
2026-05-04 18:26 34.75477 64.50660 35120 ft 537 kts 129°
2026-05-04 18:27 34.70859 64.57822 35122 ft 538 kts 129°
2026-05-04 18:27 34.66239 64.64973 35119 ft 538 kts 129°
2026-05-04 18:28 34.61612 64.72120 35125 ft 538 kts 129°
2026-05-04 18:28 34.56981 64.79260 35124 ft 538 kts 129°
2026-05-04 18:29 34.52342 64.86400 35117 ft 538 kts 129°
2026-05-04 18:29 34.47700 64.93524 35121 ft 538 kts 129°
2026-05-04 18:30 34.40754 65.04133 35112 ft 538 kts 129°
2026-05-04 18:31 34.36088 65.11246 35117 ft 538 kts 129°
2026-05-04 18:31 34.31424 65.18345 35105 ft 538 kts 129°
2026-05-04 18:32 34.26762 65.25429 35107 ft 538 kts 129°
2026-05-04 18:32 34.22097 65.32501 35100 ft 538 kts 129°
2026-05-04 18:33 34.17455 65.39525 35104 ft 538 kts 129°
2026-05-04 18:33 34.12786 65.46578 35105 ft 538 kts 129°
2026-05-04 18:34 34.08106 65.53634 35090 ft 538 kts 129°
2026-05-04 18:34 34.03419 65.60686 35066 ft 538 kts 129°
2026-05-04 18:35 33.98735 65.67725 35076 ft 538 kts 129°
2026-05-04 18:35 33.94046 65.74761 35065 ft 538 kts 129°
2026-05-04 18:36 33.89354 65.81790 35060 ft 538 kts 129°
2026-05-04 18:36 33.84686 65.88769 35046 ft 539 kts 129°
2026-05-04 18:37 33.79975 65.95797 35041 ft 539 kts 129°
2026-05-04 18:37 33.75260 66.02817 35027 ft 539 kts 129°
2026-05-04 18:38 33.70553 66.09814 34991 ft 538 kts 129°
2026-05-04 18:38 33.65849 66.16790 35004 ft 537 kts 129°
2026-05-04 18:39 33.61170 66.23717 34981 ft 538 kts 129°
2026-05-04 18:39 33.56446 66.30699 34976 ft 539 kts 129°
2026-05-04 18:40 33.51723 66.37668 34975 ft 538 kts 129°
2026-05-04 18:40 33.47005 66.44614 34976 ft 538 kts 129°
2026-05-04 18:41 33.43066 66.50390 34984 ft 538 kts 129°
2026-05-04 18:41 33.38308 66.57331 34999 ft 539 kts 129°
2026-05-04 18:42 33.33578 66.64217 35000 ft 539 kts 129°
2026-05-04 18:42 33.28816 66.71144 35015 ft 540 kts 129°
2026-05-04 18:43 33.24050 66.78065 35032 ft 539 kts 129°
2026-05-04 18:43 33.19278 66.84984 35031 ft 540 kts 129°
2026-05-04 18:44 33.14498 66.91901 35039 ft 540 kts 130°
2026-05-04 18:44 33.09712 66.98811 35030 ft 540 kts 129°
2026-05-04 18:45 33.04925 67.05711 35034 ft 540 kts 129°
2026-05-04 18:45 33.00130 67.12610 34983 ft 540 kts 129°
2026-05-04 18:46 32.95342 67.19486 35001 ft 539 kts 130°
2026-05-04 18:46 32.90542 67.26365 34983 ft 541 kts 130°
2026-05-04 18:47 32.85726 67.33254 34972 ft 542 kts 130°
2026-05-04 18:47 32.80923 67.40118 34956 ft 543 kts 130°
2026-05-04 18:48 32.76080 67.46992 34941 ft 542 kts 131°
2026-05-04 18:48 32.71101 67.53704 34930 ft 541 kts 132°
2026-05-04 18:49 32.66081 67.60371 34922 ft 541 kts 132°
2026-05-04 18:49 32.61086 67.67053 34920 ft 540 kts 132°
2026-05-04 18:50 32.56105 67.73733 34917 ft 539 kts 132°
2026-05-04 18:50 32.51162 67.80348 34908 ft 539 kts 132°
2026-05-04 18:51 32.46277 67.87086 34913 ft 538 kts 130°
2026-05-04 18:51 32.41549 67.93963 34921 ft 538 kts 129°
2026-05-04 18:52 32.36825 68.00832 34923 ft 538 kts 129°
2026-05-04 18:52 32.32066 68.07670 34930 ft 538 kts 130°
2026-05-04 18:53 32.27286 68.14493 34940 ft 538 kts 130°
2026-05-04 18:53 32.22539 68.21255 34932 ft 539 kts 130°
2026-05-04 18:54 32.17753 68.28067 34942 ft 539 kts 130°
2026-05-04 18:54 32.12961 68.34877 34946 ft 539 kts 130°
2026-05-04 18:55 32.08161 68.41686 34943 ft 540 kts 130°
2026-05-04 18:55 32.00954 68.51886 34948 ft 540 kts 130°
2026-05-04 18:56 31.96144 68.58678 34951 ft 540 kts 130°
2026-05-04 18:56 31.91328 68.65467 34944 ft 540 kts 130°
2026-05-04 18:57 31.86508 68.72249 34944 ft 540 kts 130°
2026-05-04 18:57 31.81712 68.78985 34946 ft 540 kts 130°
2026-05-04 18:58 31.76894 68.85740 34950 ft 539 kts 130°
2026-05-04 18:58 31.72073 68.92490 34950 ft 539 kts 130°
2026-05-04 18:59 31.67244 68.99239 34950 ft 538 kts 130°
2026-05-04 18:59 31.62527 69.06057 34948 ft 538 kts 128°
2026-05-04 19:00 31.57919 69.12985 34943 ft 538 kts 128°
2026-05-04 19:00 31.53303 69.19882 34947 ft 537 kts 128°
2026-05-04 19:01 31.48693 69.26701 34946 ft 536 kts 129°
2026-05-04 19:01 31.44049 69.33553 34941 ft 536 kts 129°
2026-05-04 19:02 31.39410 69.40372 34941 ft 533 kts 131°
2026-05-04 19:02 31.36768 69.43407 34954 ft 531 kts 145°
2026-05-04 19:02 31.33682 69.45746 34952 ft 527 kts 155°
2026-05-04 19:03 31.30379 69.47421 34942 ft 522 kts 166°
2026-05-04 19:03 31.26869 69.48404 34952 ft 516 kts 173°
2026-05-04 19:03 31.19797 69.50018 34942 ft 519 kts 173°
2026-05-04 19:04 31.12694 69.51694 34943 ft 522 kts 172°
2026-05-04 19:04 31.05563 69.53451 34942 ft 523 kts 172°
2026-05-04 19:05 30.98433 69.55230 34945 ft 524 kts 172°
2026-05-04 19:05 30.91307 69.57002 34930 ft 523 kts 172°
2026-05-04 19:06 30.84203 69.58760 34924 ft 521 kts 172°
2026-05-04 19:06 30.77162 69.60499 34920 ft 520 kts 172°
2026-05-04 19:07 30.70094 69.62241 34919 ft 519 kts 172°
2026-05-04 19:07 30.63022 69.63981 34917 ft 519 kts 172°
2026-05-04 19:08 30.55950 69.65719 34910 ft 519 kts 172°
2026-05-04 19:08 30.48869 69.67457 34914 ft 520 kts 172°
2026-05-04 19:09 30.41774 69.69197 34914 ft 522 kts 172°
2026-05-04 19:09 30.34663 69.70938 34902 ft 523 kts 173°
2026-05-04 19:10 30.27525 69.72683 34900 ft 524 kts 173°
2026-05-04 19:10 30.20448 69.74503 34904 ft 526 kts 171°
2026-05-04 19:11 30.13344 69.76609 34887 ft 527 kts 170°
2026-05-04 19:11 30.06248 69.78748 34889 ft 527 kts 170°
2026-05-04 19:12 29.95579 69.81880 34883 ft 527 kts 171°
2026-05-04 19:13 29.88469 69.83939 34871 ft 527 kts 171°
2026-05-04 19:13 29.81357 69.85997 34865 ft 527 kts 171°
2026-05-04 19:14 29.74271 69.88047 34848 ft 528 kts 171°
2026-05-04 19:14 29.67133 69.90111 34829 ft 529 kts 171°
2026-05-04 19:15 29.59979 69.92175 34822 ft 529 kts 171°
2026-05-04 19:15 29.52839 69.94234 34795 ft 528 kts 171°
2026-05-04 19:16 29.45707 69.96288 34793 ft 528 kts 171°
2026-05-04 19:16 29.38564 69.98339 34797 ft 529 kts 171°
2026-05-04 19:17 29.31449 70.00381 34788 ft 530 kts 171°
2026-05-04 19:17 29.24284 70.02433 34780 ft 531 kts 171°
2026-05-04 19:18 29.17104 70.04489 34776 ft 531 kts 171°
2026-05-04 19:18 29.09921 70.06541 34766 ft 531 kts 171°
2026-05-04 19:19 29.02745 70.08589 34759 ft 531 kts 171°
2026-05-04 19:19 28.95627 70.10618 34755 ft 530 kts 171°
2026-05-04 19:20 28.88464 70.12656 34739 ft 530 kts 171°
2026-05-04 19:20 28.81314 70.14687 34740 ft 529 kts 171°
2026-05-04 19:21 28.74168 70.16714 34734 ft 529 kts 171°
2026-05-04 19:21 28.67023 70.18739 34734 ft 529 kts 171°
2026-05-04 19:22 28.59882 70.20759 34731 ft 529 kts 171°
2026-05-04 19:22 28.52730 70.22780 34731 ft 529 kts 171°
2026-05-04 19:23 28.45575 70.24799 34726 ft 530 kts 171°
2026-05-04 19:23 28.38689 70.27621 34719 ft 541 kts 149°
2026-05-04 19:23 28.35796 70.30388 34731 ft 547 kts 134°
2026-05-04 19:24 28.33578 70.33902 34713 ft 549 kts 116°
2026-05-04 19:24 28.30390 70.41759 34724 ft 549 kts 114°
2026-05-04 19:25 28.27166 70.49651 34728 ft 552 kts 115°
2026-05-04 19:25 28.23846 70.57488 34724 ft 554 kts 116°
2026-05-04 19:26 28.20466 70.65347 34716 ft 554 kts 116°
2026-05-04 19:26 28.17090 70.73185 34708 ft 553 kts 116°
2026-05-04 19:27 28.13720 70.81017 34708 ft 551 kts 116°
2026-05-04 19:27 28.10367 70.88803 34706 ft 549 kts 116°
2026-05-04 19:28 28.07018 70.96560 34706 ft 547 kts 116°
2026-05-04 19:28 28.03675 71.04290 34717 ft 546 kts 116°
2026-05-04 19:29 28.00895 71.10706 34715 ft 545 kts 116°
2026-05-04 19:29 27.97553 71.18406 34720 ft 545 kts 116°
2026-05-04 19:30 27.94206 71.26101 34707 ft 545 kts 116°
2026-05-04 19:30 27.90858 71.33788 34703 ft 545 kts 116°
2026-05-04 19:31 27.87503 71.41475 34709 ft 545 kts 117°
2026-05-04 19:31 27.84072 71.49122 34718 ft 545 kts 118°
2026-05-04 19:32 27.80550 71.56710 34713 ft 545 kts 118°
2026-05-04 19:32 27.77046 71.64248 34704 ft 545 kts 118°
2026-05-04 19:33 27.73538 71.71829 34717 ft 545 kts 118°
2026-05-04 19:33 27.70035 71.79408 34716 ft 544 kts 118°
2026-05-04 19:34 27.66529 71.86981 34724 ft 543 kts 118°
2026-05-04 19:34 27.63028 71.94524 34722 ft 542 kts 118°
2026-05-04 19:35 27.59527 72.02052 34727 ft 541 kts 118°
2026-05-04 19:35 27.56029 72.09560 34734 ft 540 kts 119°
2026-05-04 19:36 27.52532 72.17053 34735 ft 540 kts 119°
2026-05-04 19:36 27.49062 72.24476 34742 ft 539 kts 119°
2026-05-04 19:37 27.45564 72.31944 34741 ft 539 kts 119°
2026-05-04 19:37 27.42064 72.39404 34749 ft 538 kts 119°
2026-05-04 19:38 27.38561 72.46856 34750 ft 538 kts 119°
2026-05-04 19:38 27.35055 72.54304 34755 ft 538 kts 119°
2026-05-04 19:39 27.31545 72.61745 34759 ft 539 kts 119°
2026-05-04 19:39 27.28031 72.69182 34763 ft 539 kts 119°
2026-05-04 19:40 27.24530 72.76579 34762 ft 538 kts 119°
2026-05-04 19:40 27.21006 72.84011 34767 ft 538 kts 120°
2026-05-04 19:41 27.17481 72.91432 34768 ft 538 kts 120°
2026-05-04 19:41 27.13953 72.98848 34775 ft 538 kts 120°
2026-05-04 19:42 27.10418 73.06265 34773 ft 538 kts 120°
2026-05-04 19:42 27.06905 73.13623 34775 ft 538 kts 120°
2026-05-04 19:43 27.03363 73.21031 34775 ft 538 kts 120°
2026-05-04 19:43 26.99821 73.28425 34782 ft 538 kts 120°
2026-05-04 19:44 26.96278 73.35811 34784 ft 537 kts 120°
2026-05-04 19:44 26.92708 73.43169 34785 ft 537 kts 121°
2026-05-04 19:45 26.89109 73.50500 34789 ft 537 kts 121°
2026-05-04 19:45 26.85508 73.57829 34790 ft 536 kts 121°
2026-05-04 19:46 26.81933 73.65109 34793 ft 536 kts 121°
2026-05-04 19:46 26.78337 73.72424 34799 ft 536 kts 121°
2026-05-04 19:47 26.74737 73.79735 34801 ft 536 kts 121°
2026-05-04 19:47 26.71135 73.87037 34805 ft 536 kts 121°
2026-05-04 19:48 26.67530 73.94333 34807 ft 536 kts 121°
2026-05-04 19:48 26.63917 74.01634 34813 ft 536 kts 121°
2026-05-04 19:49 26.60304 74.08923 34813 ft 536 kts 121°
2026-05-04 19:49 26.56689 74.16205 34820 ft 536 kts 121°
2026-05-04 19:50 26.53078 74.23499 34827 ft 536 kts 121°
2026-05-04 19:50 26.49526 74.30755 34832 ft 535 kts 121°
2026-05-04 19:51 26.45959 74.38040 34826 ft 535 kts 121°
2026-05-04 19:51 26.42384 74.45318 34837 ft 534 kts 121°
2026-05-04 19:52 26.38810 74.52572 34844 ft 533 kts 121°
2026-05-04 19:52 26.35236 74.59816 34843 ft 533 kts 121°
2026-05-04 19:53 26.31665 74.67043 34847 ft 532 kts 121°
2026-05-04 19:53 26.28087 74.74271 34847 ft 532 kts 121°
2026-05-04 19:54 26.24535 74.81437 34851 ft 531 kts 121°
2026-05-04 19:54 26.20958 74.88642 34858 ft 531 kts 121°
2026-05-04 19:55 26.17365 74.95839 34859 ft 531 kts 123°
2026-05-04 19:55 26.13336 75.02699 34867 ft 529 kts 127°
2026-05-04 19:56 26.09169 75.09453 34867 ft 530 kts 127°
2026-05-04 19:56 26.05016 75.16234 34871 ft 530 kts 127°
2026-05-04 19:57 26.00885 75.23028 34870 ft 530 kts 127°
2026-05-04 19:57 25.96783 75.29771 34870 ft 529 kts 127°
2026-05-04 19:58 25.92653 75.36545 34867 ft 528 kts 127°
2026-05-04 19:58 25.88529 75.43296 34873 ft 526 kts 127°
2026-05-04 19:59 25.84280 75.49885 34869 ft 523 kts 130°
2026-05-04 19:59 25.79881 75.56240 34865 ft 521 kts 130°
2026-05-04 20:00 25.75471 75.62610 34865 ft 520 kts 130°
2026-05-04 20:00 25.71106 75.68993 34864 ft 518 kts 129°
2026-05-04 20:01 25.66764 75.75371 34867 ft 517 kts 129°
2026-05-04 20:01 25.62436 75.81723 34868 ft 516 kts 129°
2026-05-04 20:02 25.58111 75.88054 34866 ft 515 kts 129°
2026-05-04 20:02 25.53793 75.94364 34861 ft 514 kts 129°
2026-05-04 20:03 25.49474 76.00667 34866 ft 514 kts 129°
2026-05-04 20:03 25.45149 76.06970 34871 ft 513 kts 129°
2026-05-04 20:04 25.40857 76.13217 34883 ft 513 kts 129°
2026-05-04 20:04 25.36537 76.19497 34876 ft 512 kts 130°
2026-05-04 20:05 25.32228 76.25753 34883 ft 511 kts 130°
2026-05-04 20:05 25.27925 76.31992 34892 ft 510 kts 130°
2026-05-04 20:06 25.23617 76.38230 34893 ft 510 kts 130°
2026-05-04 20:06 25.19300 76.44471 34888 ft 512 kts 130°
2026-05-04 20:07 25.14991 76.50694 34892 ft 515 kts 130°
2026-05-04 20:07 25.10614 76.57006 34893 ft 519 kts 130°
2026-05-04 20:08 25.06209 76.63353 34891 ft 522 kts 130°
2026-05-04 20:08 25.01772 76.69738 34885 ft 526 kts 130°
2026-05-04 20:09 24.97010 76.75855 34881 ft 525 kts 136°
2026-05-04 20:09 24.91972 76.81614 34876 ft 526 kts 137°
2026-05-04 20:10 24.86869 76.87422 34877 ft 527 kts 137°
2026-05-04 20:10 24.81778 76.93268 34875 ft 528 kts 137°
2026-05-04 20:11 24.76710 76.99111 34875 ft 528 kts 137°
2026-05-04 20:11 24.71636 77.04959 34872 ft 528 kts 137°
2026-05-04 20:12 24.66588 77.10764 34878 ft 528 kts 137°
2026-05-04 20:12 24.61508 77.16596 34879 ft 527 kts 137°
2026-05-04 20:13 24.56435 77.22413 34876 ft 526 kts 137°
2026-05-04 20:13 24.51373 77.28210 34873 ft 525 kts 137°
2026-05-04 20:14 24.46321 77.33988 34878 ft 524 kts 138°
2026-05-04 20:14 24.41272 77.39756 34872 ft 523 kts 138°
2026-05-04 20:15 24.36273 77.45460 34872 ft 522 kts 138°
2026-05-04 20:15 24.31229 77.51207 34876 ft 521 kts 138°
2026-05-04 20:16 24.26202 77.56929 34875 ft 521 kts 138°
2026-05-04 20:16 24.21168 77.62651 34873 ft 521 kts 139°
2026-05-04 20:17 24.16132 77.68368 34864 ft 521 kts 139°
2026-05-04 20:17 24.11097 77.74078 34863 ft 521 kts 139°
2026-05-04 20:18 24.06092 77.79747 34865 ft 521 kts 139°
2026-05-04 20:18 24.01053 77.85447 34859 ft 521 kts 139°
2026-05-04 20:19 23.96008 77.91149 34856 ft 521 kts 139°
2026-05-04 20:19 23.91817 77.95879 34854 ft 520 kts 139°
2026-05-04 20:20 23.86779 78.01559 34848 ft 520 kts 139°
2026-05-04 20:20 23.81745 78.07228 34845 ft 519 kts 139°
2026-05-04 20:21 23.76703 78.12899 34847 ft 519 kts 139°
2026-05-04 20:21 23.69160 78.21371 34844 ft 518 kts 139°
2026-05-04 20:22 23.64165 78.26973 34849 ft 518 kts 139°
2026-05-04 20:22 23.59140 78.32603 34847 ft 518 kts 139°
2026-05-04 20:23 23.54107 78.38233 34844 ft 518 kts 140°
2026-05-04 20:23 23.49077 78.43855 34835 ft 518 kts 140°
2026-05-04 20:24 23.44047 78.49470 34847 ft 518 kts 140°
2026-05-04 20:24 23.39017 78.55079 34842 ft 517 kts 140°
2026-05-04 20:25 23.33984 78.60684 34831 ft 518 kts 140°
2026-05-04 20:25 23.28987 78.66245 34831 ft 517 kts 140°
2026-05-04 20:26 23.23949 78.71845 34824 ft 517 kts 140°
2026-05-04 20:26 23.18884 78.77397 34821 ft 516 kts 141°
2026-05-04 20:27 23.13752 78.82840 34818 ft 515 kts 141°
2026-05-04 20:27 23.08613 78.88271 34817 ft 515 kts 141°
2026-05-04 20:28 23.03488 78.93709 34817 ft 515 kts 141°
2026-05-04 20:28 22.98367 78.99152 34813 ft 515 kts 141°
2026-05-04 20:29 22.93276 79.04556 34818 ft 515 kts 141°
2026-05-04 20:29 22.88155 79.09986 34815 ft 515 kts 141°
2026-05-04 20:30 22.83028 79.15414 34813 ft 515 kts 141°
2026-05-04 20:30 22.77899 79.20838 34824 ft 515 kts 141°
2026-05-04 20:31 22.72769 79.26259 34823 ft 515 kts 141°
2026-05-04 20:31 22.67639 79.31673 34819 ft 515 kts 141°
2026-05-04 20:32 22.62541 79.37049 34830 ft 514 kts 141°
2026-05-04 20:32 22.57759 79.42854 34819 ft 522 kts 129°
2026-05-04 20:33 22.54247 79.49787 34813 ft 531 kts 115°
2026-05-04 20:33 22.51689 79.57276 34817 ft 531 kts 113°
2026-05-04 20:34 22.49183 79.64802 34814 ft 530 kts 114°
2026-05-04 20:34 22.46642 79.72222 34810 ft 529 kts 114°
2026-05-04 20:35 22.44047 79.79669 34806 ft 528 kts 114°
2026-05-04 20:35 22.41453 79.87087 34806 ft 527 kts 114°
2026-05-04 20:36 22.38861 79.94500 34805 ft 527 kts 114°
2026-05-04 20:36 22.36271 80.01904 34804 ft 526 kts 114°
2026-05-04 20:37 22.33685 80.09284 34802 ft 525 kts 115°
2026-05-04 20:37 22.31108 80.16626 34803 ft 525 kts 115°
2026-05-04 20:38 22.28516 80.23999 34803 ft 524 kts 115°
2026-05-04 20:38 22.25924 80.31359 34804 ft 524 kts 115°
2026-05-04 20:39 22.23333 80.38706 34808 ft 524 kts 115°
2026-05-04 20:39 22.20737 80.46050 34812 ft 523 kts 115°
2026-05-04 20:40 22.18134 80.53383 34816 ft 523 kts 115°
2026-05-04 20:40 22.15541 80.60679 34820 ft 523 kts 115°
2026-05-04 20:41 22.12935 80.68005 34827 ft 523 kts 115°
2026-05-04 20:41 22.10326 80.75326 34829 ft 523 kts 115°
2026-05-04 20:42 22.07711 80.82653 34831 ft 523 kts 115°
2026-05-04 20:42 22.05094 80.89976 34832 ft 523 kts 115°
2026-05-04 20:43 22.02492 80.97242 34834 ft 523 kts 115°
2026-05-04 20:43 21.99869 81.04557 34822 ft 522 kts 115°
2026-05-04 20:44 21.97248 81.11854 34823 ft 522 kts 115°
2026-05-04 20:44 21.94626 81.19144 34813 ft 521 kts 115°
2026-05-04 20:45 21.92003 81.26425 34818 ft 520 kts 115°
2026-05-04 20:45 21.89383 81.33684 34817 ft 519 kts 115°
2026-05-04 20:46 21.86765 81.40926 34811 ft 519 kts 115°
2026-05-04 20:46 21.84159 81.48124 34808 ft 519 kts 115°
2026-05-04 20:47 21.81534 81.55367 34809 ft 519 kts 115°
2026-05-04 20:47 21.78906 81.62606 34807 ft 519 kts 115°
2026-05-04 20:48 21.76611 81.70004 34814 ft 521 kts 110°
2026-05-04 20:48 21.74520 81.77503 35055 ft 524 kts 110°
2026-05-04 20:49 21.73469 81.81249 35401 ft 522 kts 110°
2026-05-04 20:49 21.72414 81.84971 35792 ft 519 kts 110°
2026-05-04 20:49 21.71355 81.88671 36167 ft 516 kts 110°
2026-05-04 20:49 21.70297 81.92353 36485 ft 515 kts 110°
2026-05-04 20:50 21.69239 81.96034 36733 ft 515 kts 110°
2026-05-04 20:50 21.68193 81.99671 36767 ft 517 kts 110°
2026-05-04 20:50 21.66057 82.07046 36805 ft 515 kts 110°
2026-05-04 20:51 21.63920 82.14375 36812 ft 512 kts 110°
2026-05-04 20:51 21.61792 82.21663 36818 ft 509 kts 110°
2026-05-04 20:52 21.59670 82.28924 36822 ft 509 kts 110°
2026-05-04 20:52 21.57548 82.36174 36825 ft 509 kts 110°
2026-05-04 20:53 21.55433 82.43390 36829 ft 510 kts 110°
2026-05-04 20:53 21.53297 82.50664 36828 ft 511 kts 110°
2026-05-04 20:54 21.51150 82.57963 36826 ft 512 kts 110°
2026-05-04 20:54 21.49002 82.65256 36836 ft 513 kts 110°
2026-05-04 20:55 21.46526 82.72420 36841 ft 510 kts 115°
2026-05-04 20:55 21.43784 82.79459 36824 ft 511 kts 115°
2026-05-04 20:56 21.41056 82.86443 36841 ft 511 kts 115°
2026-05-04 20:56 21.38332 82.93490 36828 ft 511 kts 115°
2026-05-04 20:57 21.35618 83.00538 36829 ft 511 kts 115°
2026-05-04 20:57 21.32903 83.07582 36834 ft 511 kts 115°
2026-05-04 20:58 21.30181 83.14628 36844 ft 512 kts 115°
2026-05-04 20:58 21.27448 83.21690 36839 ft 513 kts 115°
2026-05-04 20:59 21.24708 83.28758 36828 ft 514 kts 115°
2026-05-04 20:59 21.21962 83.35833 36828 ft 514 kts 115°
2026-05-04 21:00 21.19210 83.42913 36838 ft 515 kts 115°
2026-05-04 21:00 21.16476 83.49939 36821 ft 515 kts 115°
2026-05-04 21:01 21.13718 83.57014 36817 ft 514 kts 115°
2026-05-04 21:01 21.10962 83.64076 36820 ft 514 kts 115°
2026-05-04 21:02 21.08196 83.71152 36812 ft 513 kts 115°
2026-05-04 21:02 21.05436 83.78207 36816 ft 513 kts 115°
2026-05-04 21:03 21.02676 83.85249 36811 ft 513 kts 115°
2026-05-04 21:03 20.99936 83.92240 36815 ft 513 kts 115°
2026-05-04 21:04 20.97177 83.99271 36819 ft 512 kts 115°
2026-05-04 21:04 20.94416 84.06298 36814 ft 512 kts 115°
2026-05-04 21:05 20.91649 84.13329 36813 ft 512 kts 115°
2026-05-04 21:05 20.88884 84.20347 36810 ft 512 kts 115°
2026-05-04 21:06 20.86116 84.27361 36810 ft 512 kts 115°
2026-05-04 21:06 20.83362 84.34331 36818 ft 511 kts 115°
2026-05-04 21:07 20.80588 84.41340 36823 ft 511 kts 115°
2026-05-04 21:07 20.77813 84.48342 36824 ft 512 kts 115°
2026-05-04 21:08 20.75037 84.55339 36815 ft 512 kts 115°
2026-05-04 21:08 20.72253 84.62344 36833 ft 512 kts 115°
2026-05-04 21:09 20.69939 84.68160 36823 ft 512 kts 115°
2026-05-04 21:09 20.67145 84.75173 36826 ft 513 kts 115°
2026-05-04 21:10 20.64350 84.82179 36825 ft 512 kts 115°
2026-05-04 21:10 20.61552 84.89183 36825 ft 512 kts 115°
2026-05-04 21:11 20.58770 84.96139 36819 ft 512 kts 115°
2026-05-04 21:11 20.55969 85.03131 36836 ft 512 kts 115°
2026-05-04 21:12 20.53166 85.10119 36835 ft 512 kts 115°
2026-05-04 21:12 20.50361 85.17102 36832 ft 512 kts 115°
2026-05-04 21:13 20.47551 85.24089 36817 ft 512 kts 115°
2026-05-04 21:13 20.44759 85.31021 36827 ft 511 kts 115°
2026-05-04 21:14 20.41951 85.37985 36828 ft 511 kts 115°
2026-05-04 21:14 20.39141 85.44942 36826 ft 511 kts 115°
2026-05-04 21:15 20.36330 85.51893 36824 ft 510 kts 115°
2026-05-04 21:15 20.33518 85.58840 36828 ft 510 kts 115°
2026-05-04 21:16 20.30705 85.65778 36829 ft 510 kts 115°
2026-05-04 21:16 20.27892 85.72711 36831 ft 510 kts 115°
2026-05-04 21:17 20.24777 85.79480 36828 ft 506 kts 125°
2026-05-04 21:17 20.20532 85.85406 36833 ft 501 kts 137°
2026-05-04 21:18 20.15556 85.90517 36838 ft 499 kts 140°
2026-05-04 21:18 20.10508 85.95599 36829 ft 500 kts 139°
2026-05-04 21:19 20.05482 86.00748 36826 ft 501 kts 139°
2026-05-04 21:19 20.00501 86.05874 36836 ft 501 kts 139°
2026-05-04 21:20 19.95462 86.10997 36836 ft 501 kts 139°
2026-05-04 21:20 19.90406 86.16098 36834 ft 502 kts 139°
2026-05-04 21:21 19.85422 86.21308 36834 ft 502 kts 137°
2026-05-04 21:21 19.80481 86.26560 36831 ft 502 kts 138°
2026-05-04 21:22 19.75524 86.31798 36838 ft 502 kts 138°
2026-05-04 21:22 19.70561 86.37016 36841 ft 502 kts 138°
2026-05-04 21:23 19.65625 86.42202 36837 ft 502 kts 138°
2026-05-04 21:23 19.60661 86.47410 36842 ft 502 kts 138°
2026-05-04 21:24 19.55680 86.52596 36843 ft 502 kts 138°
2026-05-04 21:24 19.50694 86.57775 36844 ft 502 kts 138°
2026-05-04 21:25 19.45706 86.62956 36845 ft 502 kts 138°
2026-05-04 21:25 19.40754 86.68100 36843 ft 502 kts 138°
2026-05-04 21:26 19.35759 86.73284 36843 ft 502 kts 138°
2026-05-04 21:26 19.30766 86.78461 36845 ft 502 kts 138°
2026-05-04 21:27 19.25771 86.83636 36843 ft 502 kts 138°
2026-05-04 21:27 19.20779 86.88803 36845 ft 502 kts 138°
2026-05-04 21:28 19.15824 86.93926 36844 ft 501 kts 139°
2026-05-04 21:28 19.10826 86.99090 36840 ft 501 kts 139°
2026-05-04 21:29 19.05833 87.04243 36844 ft 501 kts 139°
2026-05-04 21:29 19.00847 87.09386 36841 ft 501 kts 139°
2026-05-04 21:30 18.95856 87.14528 36841 ft 501 kts 139°
2026-05-04 21:30 18.90866 87.19665 36848 ft 501 kts 139°
2026-05-04 21:31 18.83375 87.27368 36848 ft 501 kts 139°
2026-05-04 21:32 18.78406 87.32472 36848 ft 501 kts 139°
2026-05-04 21:32 18.73413 87.37598 36848 ft 501 kts 139°
2026-05-04 21:33 18.68418 87.42719 36845 ft 501 kts 139°
2026-05-04 21:33 18.63409 87.47851 36847 ft 501 kts 139°
2026-05-04 21:34 18.58405 87.52974 36850 ft 501 kts 139°
2026-05-04 21:34 18.53401 87.58092 36849 ft 501 kts 139°
2026-05-04 21:35 18.48392 87.63211 36849 ft 501 kts 139°
2026-05-04 21:35 18.43379 87.68330 36852 ft 501 kts 139°
2026-05-04 21:36 18.38368 87.73443 36848 ft 501 kts 139°
2026-05-04 21:36 18.33357 87.78552 36851 ft 501 kts 139°
2026-05-04 21:37 18.28349 87.83654 36851 ft 501 kts 139°
2026-05-04 21:37 18.23398 87.88754 36854 ft 501 kts 138°
2026-05-04 21:38 18.18432 87.93912 36852 ft 501 kts 138°
2026-05-04 21:38 18.13464 87.99064 36854 ft 501 kts 138°
2026-05-04 21:39 18.08497 88.04202 36850 ft 501 kts 138°
2026-05-04 21:39 18.03515 88.09348 36864 ft 501 kts 138°
2026-05-04 21:40 17.98577 88.14443 36843 ft 501 kts 138°
2026-05-04 21:40 17.93606 88.19569 36849 ft 501 kts 138°
2026-05-04 21:41 17.88623 88.24704 36860 ft 501 kts 138°
2026-05-04 21:41 17.83644 88.29830 36858 ft 501 kts 138°
2026-05-04 21:42 17.78666 88.34950 36847 ft 501 kts 138°
2026-05-04 21:42 17.73691 88.40064 36857 ft 501 kts 138°
2026-05-04 21:43 17.68707 88.45183 36857 ft 501 kts 138°
2026-05-04 21:43 17.63729 88.50291 36855 ft 501 kts 138°
2026-05-04 21:44 17.58748 88.55398 36854 ft 501 kts 138°
2026-05-04 21:44 17.53763 88.60505 36850 ft 501 kts 138°
2026-05-04 21:45 17.48809 88.65576 36855 ft 501 kts 138°
2026-05-04 21:45 17.43828 88.70671 36851 ft 500 kts 137°
2026-05-04 21:46 17.38846 88.75763 36858 ft 500 kts 138°
2026-05-04 21:46 17.33864 88.80850 36857 ft 500 kts 137°
2026-05-04 21:47 17.28889 88.85928 36856 ft 499 kts 137°
2026-05-04 21:47 17.23917 88.90999 36860 ft 499 kts 137°
2026-05-04 21:48 17.18945 88.96067 36859 ft 499 kts 137°
2026-05-04 21:48 17.14036 89.01140 36859 ft 499 kts 137°
2026-05-04 21:49 17.09123 89.06257 36854 ft 499 kts 137°
2026-05-04 21:49 17.04196 89.11378 36857 ft 499 kts 137°
2026-05-04 21:50 16.99271 89.16485 36860 ft 499 kts 137°
2026-05-04 21:50 16.94338 89.21592 36854 ft 499 kts 137°
2026-05-04 21:51 16.89404 89.26696 36859 ft 499 kts 137°
2026-05-04 21:51 16.84504 89.31763 36851 ft 499 kts 137°
2026-05-04 21:52 16.79561 89.36869 36861 ft 499 kts 137°
2026-05-04 21:52 16.74625 89.41964 36859 ft 499 kts 137°
2026-05-04 21:53 16.69690 89.47054 36857 ft 499 kts 137°
2026-05-04 21:53 16.64750 89.52146 36857 ft 499 kts 137°
2026-05-04 21:54 16.59814 89.57229 36854 ft 498 kts 137°
2026-05-04 21:54 16.54884 89.62303 36858 ft 498 kts 137°
2026-05-04 21:55 16.49980 89.67346 36856 ft 498 kts 137°
2026-05-04 21:55 16.45051 89.72411 36857 ft 497 kts 137°
2026-05-04 21:56 16.40128 89.77465 36857 ft 497 kts 137°
2026-05-04 21:56 16.35201 89.82521 36856 ft 497 kts 137°
2026-05-04 21:57 16.30274 89.87572 36859 ft 496 kts 137°
2026-05-04 21:57 16.25347 89.92620 36858 ft 496 kts 137°
2026-05-04 21:58 16.20461 89.97622 36857 ft 496 kts 137°
2026-05-04 21:58 16.16337 90.01842 36860 ft 496 kts 137°
2026-05-04 21:59 16.11414 90.06875 36856 ft 496 kts 137°
2026-05-04 21:59 16.06528 90.11868 36857 ft 496 kts 137°
2026-05-04 22:00 16.01606 90.16894 36856 ft 496 kts 136°
2026-05-04 22:00 15.96728 90.21961 36857 ft 496 kts 136°
2026-05-04 22:01 15.91878 90.27065 36855 ft 496 kts 136°
2026-05-04 22:01 15.87018 90.32171 36861 ft 496 kts 136°
2026-05-04 22:02 15.82193 90.37226 36857 ft 496 kts 136°
2026-05-04 22:02 15.77330 90.42310 36854 ft 496 kts 136°
2026-05-04 22:03 15.72590 90.47261 36859 ft 496 kts 136°
2026-05-04 22:03 15.67722 90.52342 36863 ft 496 kts 136°
2026-05-04 22:04 15.62858 90.57416 36860 ft 496 kts 136°
2026-05-04 22:04 15.57988 90.62494 36857 ft 496 kts 136°
2026-05-04 22:05 15.53121 90.67564 36858 ft 496 kts 136°
2026-05-04 22:05 15.48254 90.72631 36858 ft 496 kts 136°
2026-05-04 22:06 15.43389 90.77693 36858 ft 495 kts 136°
2026-05-04 22:06 15.38520 90.82754 36860 ft 495 kts 136°
2026-05-04 22:07 15.33658 90.87806 36857 ft 495 kts 136°
2026-05-04 22:07 15.28820 90.92828 36858 ft 495 kts 136°
2026-05-04 22:08 15.23949 90.97881 36858 ft 495 kts 136°
2026-05-04 22:08 15.19081 91.02928 36856 ft 495 kts 136°
2026-05-04 22:09 15.14209 91.07975 36856 ft 495 kts 136°
2026-05-04 22:09 15.09328 91.13028 36857 ft 496 kts 136°
2026-05-04 22:10 15.04451 91.18073 36857 ft 496 kts 136°
2026-05-04 22:10 14.99569 91.23121 36857 ft 496 kts 136°
2026-05-04 22:11 14.94712 91.28139 36857 ft 496 kts 136°
2026-05-04 22:11 14.89821 91.33189 36856 ft 497 kts 136°
2026-05-04 22:12 14.84929 91.38236 36859 ft 497 kts 136°
2026-05-04 22:12 14.80036 91.43281 36858 ft 497 kts 136°
2026-05-04 22:13 14.75143 91.48323 36857 ft 497 kts 136°
2026-05-04 22:13 14.70240 91.53371 36859 ft 497 kts 136°
2026-05-04 22:14 14.65343 91.58410 36854 ft 497 kts 136°
2026-05-04 22:14 14.60445 91.63447 36852 ft 497 kts 136°
2026-05-04 22:15 14.55545 91.68482 36855 ft 497 kts 136°
2026-05-04 22:15 14.50670 91.73488 36855 ft 497 kts 136°
2026-05-04 22:16 14.45769 91.78519 36855 ft 497 kts 136°
2026-05-04 22:16 14.40861 91.83553 36857 ft 497 kts 136°
2026-05-04 22:17 14.35952 91.88584 36857 ft 497 kts 136°
2026-05-04 22:17 14.31044 91.93613 36860 ft 497 kts 136°
2026-05-04 22:18 14.26131 91.98643 36857 ft 497 kts 136°
2026-05-04 22:18 14.21253 92.03707 36859 ft 498 kts 136°
2026-05-04 22:19 14.16452 92.08799 36858 ft 498 kts 136°
2026-05-04 22:19 14.11619 92.13916 36860 ft 498 kts 136°
2026-05-04 22:20 14.06777 92.19023 36859 ft 498 kts 136°
2026-05-04 22:20 14.01919 92.24138 36859 ft 498 kts 136°
2026-05-04 22:21 13.97073 92.29239 36856 ft 498 kts 136°
2026-05-04 22:21 13.92214 92.34334 36855 ft 498 kts 136°
2026-05-04 22:22 13.87262 92.39323 36854 ft 498 kts 137°
2026-05-04 22:22 13.82270 92.44278 36859 ft 498 kts 137°
2026-05-04 22:23 13.77290 92.49240 36857 ft 498 kts 137°
2026-05-04 22:23 13.72319 92.54211 36856 ft 498 kts 137°
2026-05-04 22:24 13.67376 92.59158 36856 ft 499 kts 137°
2026-05-04 22:24 13.62407 92.64128 36859 ft 498 kts 137°
2026-05-04 22:25 13.57433 92.69099 36858 ft 498 kts 137°
2026-05-04 22:25 13.52457 92.74067 36858 ft 498 kts 137°
2026-05-04 22:26 13.47486 92.79028 36860 ft 498 kts 137°
2026-05-04 22:26 13.42516 92.83985 36856 ft 498 kts 137°
2026-05-04 22:27 13.37547 92.88938 36860 ft 497 kts 137°
2026-05-04 22:27 13.32615 92.93851 36856 ft 497 kts 137°
2026-05-04 22:28 13.27656 92.98788 36858 ft 496 kts 137°
2026-05-04 22:28 13.22693 93.03726 36857 ft 496 kts 137°
2026-05-04 22:29 13.17735 93.08655 36857 ft 496 kts 137°
2026-05-04 22:29 13.12784 93.13575 36859 ft 495 kts 137°
2026-05-04 22:30 13.07836 93.18489 36857 ft 495 kts 137°
2026-05-04 22:30 13.02889 93.23399 36856 ft 495 kts 137°
2026-05-04 22:31 12.97939 93.28310 36857 ft 495 kts 137°
2026-05-04 22:31 12.92994 93.33212 36858 ft 495 kts 137°
2026-05-04 22:32 12.88077 93.38084 36857 ft 495 kts 137°
2026-05-04 22:32 12.83123 93.42990 36858 ft 495 kts 137°
2026-05-04 22:33 12.78166 93.47896 36859 ft 495 kts 137°
2026-05-04 22:33 12.73212 93.52796 36856 ft 495 kts 137°
2026-05-04 22:34 12.68261 93.57691 36857 ft 495 kts 137°
2026-05-04 22:34 12.63306 93.62586 36858 ft 494 kts 137°
2026-05-04 22:35 12.58354 93.67476 36859 ft 494 kts 137°
2026-05-04 22:35 12.53402 93.72364 36858 ft 494 kts 137°
2026-05-04 22:36 12.48458 93.77240 36856 ft 494 kts 137°
2026-05-04 22:36 12.43542 93.82086 36811 ft 493 kts 137°
2026-05-04 22:37 12.38601 93.86955 36849 ft 493 kts 137°
2026-05-04 22:37 12.33651 93.91830 36861 ft 494 kts 137°
2026-05-04 22:38 12.28690 93.96713 36859 ft 495 kts 137°
2026-05-04 22:38 12.23712 94.01611 36857 ft 496 kts 137°
2026-05-04 22:39 12.18740 94.06519 36859 ft 497 kts 137°
2026-05-04 22:39 12.13822 94.11412 36857 ft 497 kts 136°
2026-05-04 22:40 12.08872 94.16336 36858 ft 496 kts 137°
2026-05-04 22:40 12.03923 94.21251 36856 ft 496 kts 137°
2026-05-04 22:41 11.98977 94.26159 36857 ft 495 kts 136°
2026-05-04 22:41 11.94037 94.31057 36857 ft 494 kts 136°
2026-05-04 22:42 11.89106 94.35946 36858 ft 494 kts 136°
2026-05-04 22:42 11.84178 94.40830 36861 ft 493 kts 136°
2026-05-04 22:43 11.79545 94.45988 36860 ft 493 kts 131°
2026-05-04 22:43 11.75075 94.51292 36859 ft 493 kts 131°
2026-05-04 22:44 11.70603 94.56597 36861 ft 493 kts 131°
2026-05-04 22:44 11.66116 94.61881 36859 ft 493 kts 131°
2026-05-04 22:45 11.61639 94.67134 36859 ft 493 kts 131°
2026-05-04 22:45 11.54888 94.75044 36862 ft 492 kts 131°
2026-05-04 22:46 11.51151 94.79422 36861 ft 492 kts 131°
2026-05-04 22:46 11.46658 94.84684 36860 ft 492 kts 131°
2026-05-04 22:47 11.42165 94.89943 36860 ft 491 kts 131°
2026-05-04 22:47 11.37675 94.95196 36863 ft 491 kts 131°
2026-05-04 22:48 11.33190 95.00441 36864 ft 491 kts 131°
2026-05-04 22:48 11.28700 95.05688 36861 ft 490 kts 131°
2026-05-04 22:49 11.24218 95.10923 36865 ft 490 kts 131°
2026-05-04 22:49 11.19735 95.16157 36862 ft 490 kts 131°
2026-05-04 22:50 11.15285 95.21350 36860 ft 490 kts 131°
2026-05-04 22:50 11.10809 95.26570 36866 ft 489 kts 131°
2026-05-04 22:51 11.06326 95.31796 36863 ft 489 kts 131°
2026-05-04 22:51 11.01853 95.37006 36861 ft 489 kts 131°
2026-05-04 22:52 10.97380 95.42216 36864 ft 488 kts 131°
2026-05-04 22:52 10.92910 95.47418 36864 ft 488 kts 131°
2026-05-04 22:53 10.88444 95.52614 36864 ft 488 kts 131°
2026-05-04 22:53 10.83991 95.57791 36863 ft 488 kts 131°
2026-05-04 22:54 10.79526 95.62981 36866 ft 488 kts 131°
2026-05-04 22:54 10.75050 95.68180 36865 ft 488 kts 131°
2026-05-04 22:55 10.70579 95.73371 36865 ft 488 kts 131°
2026-05-04 22:55 10.66097 95.78573 36863 ft 488 kts 131°
2026-05-04 22:56 10.61648 95.83733 36861 ft 488 kts 131°
2026-05-04 22:56 10.57143 95.88957 36860 ft 488 kts 131°
2026-05-04 22:57 10.52690 95.94117 36861 ft 488 kts 131°
2026-05-04 22:57 10.48211 95.99305 36860 ft 488 kts 131°
2026-05-04 22:58 10.43736 96.04486 36860 ft 488 kts 131°
2026-05-04 22:58 10.39256 96.09670 36859 ft 488 kts 131°
2026-05-04 22:59 10.34777 96.14850 36860 ft 488 kts 131°
2026-05-04 22:59 10.30288 96.20040 36862 ft 488 kts 131°
2026-05-04 23:00 10.25828 96.25195 36858 ft 489 kts 131°
2026-05-04 23:00 10.21336 96.30382 36862 ft 489 kts 131°
2026-05-04 23:01 10.16838 96.35576 36865 ft 490 kts 131°
2026-05-04 23:01 10.12337 96.40771 36860 ft 490 kts 131°
2026-05-04 23:02 10.07822 96.45979 36864 ft 490 kts 131°
2026-05-04 23:02 10.03316 96.51176 36863 ft 491 kts 131°
2026-05-04 23:03 9.98747 96.56264 36865 ft 491 kts 136°
2026-05-04 23:03 9.93744 96.60981 36875 ft 491 kts 137°
2026-05-04 23:04 9.88691 96.65652 36864 ft 492 kts 137°
2026-05-04 23:04 9.83654 96.70344 36864 ft 492 kts 137°
2026-05-04 23:05 9.78623 96.75059 36864 ft 492 kts 137°
2026-05-04 23:05 9.73598 96.79777 36865 ft 492 kts 137°
2026-05-04 23:06 9.68573 96.84491 36867 ft 492 kts 137°
2026-05-04 23:06 9.63549 96.89200 36864 ft 492 kts 137°
2026-05-04 23:07 9.58525 96.93906 36867 ft 492 kts 137°
2026-05-04 23:07 9.53529 96.98585 36866 ft 492 kts 137°
2026-05-04 23:08 9.48495 97.03297 36868 ft 492 kts 137°
2026-05-04 23:08 9.43464 97.08004 36865 ft 492 kts 137°
2026-05-04 23:09 9.38424 97.12719 36867 ft 493 kts 137°
2026-05-04 23:09 9.33387 97.17427 36864 ft 493 kts 137°
2026-05-04 23:10 9.28368 97.22117 36868 ft 493 kts 137°
2026-05-04 23:10 9.23328 97.26826 36871 ft 493 kts 137°
2026-05-04 23:11 9.18285 97.31535 36872 ft 493 kts 137°
2026-05-04 23:11 9.13240 97.36243 36874 ft 493 kts 137°
2026-05-04 23:12 9.08191 97.40954 36870 ft 494 kts 137°
2026-05-04 23:12 9.03135 97.45670 36872 ft 494 kts 137°
2026-05-04 23:13 8.98082 97.50380 36870 ft 494 kts 137°
2026-05-04 23:13 8.93032 97.55087 36870 ft 494 kts 137°
2026-05-04 23:14 8.88013 97.59765 36860 ft 494 kts 137°
2026-05-04 23:14 8.82956 97.64472 36861 ft 494 kts 137°
2026-05-04 23:15 8.77902 97.69173 36861 ft 494 kts 136°
2026-05-04 23:15 8.72850 97.73872 36863 ft 494 kts 136°
2026-05-04 23:16 8.67793 97.78576 36862 ft 494 kts 136°
2026-05-04 23:16 8.62737 97.83276 36862 ft 494 kts 136°
2026-05-04 23:17 8.57673 97.87983 36859 ft 494 kts 136°
2026-05-04 23:17 8.52612 97.92686 36861 ft 494 kts 136°
2026-05-04 23:18 8.47559 97.97377 36863 ft 493 kts 136°
2026-05-04 23:18 8.42530 98.02019 36868 ft 492 kts 136°
2026-05-04 23:19 8.37470 98.06679 36867 ft 492 kts 136°
2026-05-04 23:19 8.32419 98.11333 36863 ft 491 kts 136°
2026-05-04 23:20 8.27369 98.15988 36859 ft 491 kts 137°
2026-05-04 23:20 8.22316 98.20644 36860 ft 491 kts 137°
2026-05-04 23:21 8.17269 98.25294 36858 ft 491 kts 137°
2026-05-04 23:21 8.12249 98.29917 36859 ft 492 kts 137°
2026-05-04 23:22 8.07023 98.34392 36862 ft 493 kts 140°
2026-05-04 23:22 8.01680 98.38737 36861 ft 494 kts 140°
2026-05-04 23:23 7.96333 98.43099 36856 ft 495 kts 140°
2026-05-04 23:23 7.90988 98.47491 36864 ft 495 kts 140°
2026-05-04 23:24 7.85642 98.51893 36865 ft 496 kts 140°
2026-05-04 23:24 7.80295 98.56291 36866 ft 496 kts 140°
2026-05-04 23:25 7.74932 98.60700 36864 ft 496 kts 140°
2026-05-04 23:25 7.69589 98.65090 36864 ft 496 kts 140°
2026-05-04 23:26 7.64248 98.69479 36865 ft 495 kts 140°
2026-05-04 23:26 7.58907 98.73869 36866 ft 495 kts 140°
2026-05-04 23:27 7.53574 98.78251 36866 ft 495 kts 140°
2026-05-04 23:27 7.48276 98.82603 36865 ft 494 kts 140°
2026-05-04 23:28 7.42947 98.86977 36869 ft 494 kts 140°
2026-05-04 23:28 7.37613 98.91352 36871 ft 494 kts 140°
2026-05-04 23:29 7.32286 98.95722 36869 ft 494 kts 140°
2026-05-04 23:29 7.26962 99.00088 36869 ft 493 kts 140°
2026-05-04 23:30 7.21635 99.04456 36869 ft 493 kts 140°
2026-05-04 23:30 7.16312 99.08819 36868 ft 493 kts 140°
2026-05-04 23:31 7.10995 99.13176 36869 ft 493 kts 140°
2026-05-04 23:31 7.05677 99.17532 36869 ft 493 kts 140°
2026-05-04 23:32 7.00395 99.21858 36867 ft 493 kts 140°
2026-05-04 23:32 6.95038 99.26243 36869 ft 493 kts 140°
2026-05-04 23:33 6.89721 99.30595 36869 ft 492 kts 140°
2026-05-04 23:33 6.84442 99.34915 36868 ft 492 kts 140°
2026-05-04 23:34 6.79119 99.39269 36870 ft 492 kts 140°
2026-05-04 23:34 6.73801 99.43617 36870 ft 492 kts 140°
2026-05-04 23:35 6.68488 99.47961 36871 ft 492 kts 140°
2026-05-04 23:35 6.64071 99.51570 36871 ft 492 kts 140°
2026-05-04 23:36 6.58753 99.55916 36867 ft 492 kts 140°
2026-05-04 23:36 6.53437 99.60260 36868 ft 492 kts 140°
2026-05-04 23:37 6.48129 99.64595 36864 ft 492 kts 140°
2026-05-04 23:37 6.42755 99.68850 36859 ft 491 kts 142°
2026-05-04 23:38 6.37318 99.73010 36857 ft 491 kts 142°
2026-05-04 23:38 6.32253 99.77590 36864 ft 490 kts 134°
2026-05-04 23:39 6.27556 99.82504 36857 ft 490 kts 133°
2026-05-04 23:39 6.22817 99.87440 36861 ft 490 kts 134°
2026-05-04 23:40 6.18052 99.92345 36866 ft 490 kts 134°
2026-05-04 23:40 6.13279 99.97246 36871 ft 491 kts 134°
2026-05-04 23:41 6.08532 100.02120 36874 ft 491 kts 134°
2026-05-04 23:41 6.03737 100.07017 36878 ft 492 kts 134°
2026-05-04 23:42 5.98928 100.11926 36875 ft 492 kts 134°
2026-05-04 23:42 5.94153 100.16802 36873 ft 492 kts 134°
2026-05-04 23:43 5.89349 100.21709 36871 ft 493 kts 134°
2026-05-04 23:43 5.84535 100.26625 36875 ft 493 kts 134°
2026-05-04 23:44 5.79721 100.31539 36873 ft 493 kts 134°
2026-05-04 23:44 5.74911 100.36448 36869 ft 493 kts 134°
2026-05-04 23:45 5.70098 100.41359 36867 ft 493 kts 134°
2026-05-04 23:45 5.65286 100.46268 36864 ft 493 kts 134°
2026-05-04 23:46 5.60467 100.51182 36865 ft 493 kts 134°
2026-05-04 23:46 5.55647 100.56096 36865 ft 493 kts 134°
2026-05-04 23:47 5.50860 100.60977 36868 ft 494 kts 134°
2026-05-04 23:47 5.46035 100.65895 36875 ft 494 kts 134°
2026-05-04 23:48 5.41217 100.70804 36883 ft 493 kts 134°
2026-05-04 23:48 5.38599 100.73027 36882 ft 494 kts 146°
2026-05-04 23:48 5.35598 100.74702 36898 ft 494 kts 156°
2026-05-04 23:49 5.28975 100.76469 36902 ft 494 kts 171°
2026-05-04 23:49 5.22144 100.77416 36891 ft 496 kts 172°
2026-05-04 23:50 5.15298 100.78415 36890 ft 498 kts 171°
2026-05-04 23:50 5.08487 100.79480 36893 ft 499 kts 171°
2026-05-04 23:51 5.01627 100.80564 36890 ft 499 kts 171°
2026-05-04 23:51 4.94754 100.81643 36887 ft 499 kts 171°
2026-05-04 23:52 4.87899 100.82730 36890 ft 498 kts 171°
2026-05-04 23:52 4.81046 100.83820 36880 ft 498 kts 171°
2026-05-04 23:53 4.74213 100.84906 36883 ft 497 kts 171°
2026-05-04 23:53 4.67377 100.85991 36873 ft 496 kts 171°
2026-05-04 23:54 4.60596 100.87068 36870 ft 496 kts 171°
2026-05-04 23:54 4.53783 100.88149 36871 ft 496 kts 171°
2026-05-04 23:55 4.47008 100.89454 36873 ft 495 kts 163°
2026-05-04 23:56 4.37485 100.93384 36882 ft 494 kts 153°
2026-05-04 23:56 4.31335 100.96453 36878 ft 494 kts 153°
2026-05-04 23:57 4.25171 100.99497 36878 ft 494 kts 153°
2026-05-04 23:57 4.18989 101.02514 36883 ft 494 kts 153°
2026-05-04 23:58 4.12806 101.05521 36887 ft 494 kts 153°
2026-05-04 23:58 4.06660 101.08512 36885 ft 494 kts 153°
2026-05-04 23:59 4.00480 101.11521 36889 ft 494 kts 153°
2026-05-04 23:59 3.94298 101.14530 36889 ft 493 kts 153°
2026-05-05 00:00 3.88120 101.17538 36889 ft 493 kts 153°
2026-05-05 00:00 3.81945 101.20544 36891 ft 492 kts 153°
2026-05-05 00:01 3.75826 101.23528 36892 ft 492 kts 153°
2026-05-05 00:01 3.69733 101.26671 36887 ft 492 kts 152°
2026-05-05 00:02 3.63676 101.29863 36891 ft 491 kts 152°
2026-05-05 00:02 3.57619 101.33033 36883 ft 491 kts 152°
2026-05-05 00:03 3.51551 101.36190 36892 ft 491 kts 152°
2026-05-05 00:03 3.45478 101.39348 36896 ft 491 kts 152°
2026-05-05 00:04 3.39454 101.42481 36882 ft 491 kts 152°
2026-05-05 00:04 3.33385 101.45638 36874 ft 491 kts 152°
2026-05-05 00:05 3.27245 101.48647 36863 ft 491 kts 155°
2026-05-05 00:05 3.20999 101.51458 36858 ft 491 kts 155°
2026-05-05 00:06 3.14774 101.54273 36856 ft 491 kts 155°
2026-05-05 00:06 3.08565 101.57125 36858 ft 491 kts 155°
2026-05-05 00:07 3.02358 101.59990 36860 ft 491 kts 154°
2026-05-05 00:07 2.96154 101.62852 36865 ft 491 kts 155°
2026-05-05 00:08 2.89955 101.65709 36863 ft 491 kts 155°
2026-05-05 00:08 2.83751 101.68568 36858 ft 490 kts 155°
2026-05-05 00:09 2.77555 101.71423 36858 ft 490 kts 155°
2026-05-05 00:09 2.71365 101.74281 36855 ft 490 kts 154°
2026-05-05 00:10 2.65276 101.77246 36860 ft 489 kts 153°
2026-05-05 00:10 2.59168 101.80242 36863 ft 489 kts 153°
2026-05-05 00:11 2.53515 101.83953 36876 ft 486 kts 138°
2026-05-05 00:11 2.48974 101.88936 36888 ft 484 kts 126°
2026-05-05 00:12 2.44975 101.94356 36883 ft 484 kts 126°
2026-05-05 00:12 2.40971 101.99792 36889 ft 484 kts 126°
2026-05-05 00:13 2.36960 102.05156 36889 ft 485 kts 126°
2026-05-05 00:13 2.32904 102.10543 36886 ft 485 kts 126°
2026-05-05 00:14 2.28844 102.15933 36886 ft 485 kts 126°
2026-05-05 00:14 2.24791 102.21317 36873 ft 482 kts 126°
2026-05-05 00:14 2.22784 102.23983 36636 ft 474 kts 126°
2026-05-05 00:15 2.20812 102.26604 36110 ft 471 kts 126°
2026-05-05 00:15 2.18832 102.29235 35226 ft 476 kts 127°
2026-05-05 00:15 2.16847 102.31872 34276 ft 483 kts 126°
2026-05-05 00:15 2.14814 102.34574 33385 ft 488 kts 126°
2026-05-05 00:16 2.12777 102.37281 32743 ft 484 kts 127°
2026-05-05 00:16 2.10764 102.39953 32311 ft 477 kts 127°
2026-05-05 00:16 2.08787 102.42580 31873 ft 470 kts 127°
2026-05-05 00:16 2.06830 102.45180 31398 ft 465 kts 127°
2026-05-05 00:17 2.04890 102.47757 30879 ft 462 kts 127°
2026-05-05 00:17 2.02967 102.50311 30357 ft 458 kts 127°
2026-05-05 00:17 2.01057 102.52848 29842 ft 455 kts 127°
2026-05-05 00:17 1.99163 102.55363 29290 ft 451 kts 126°
2026-05-05 00:18 1.97287 102.57855 28756 ft 447 kts 126°
2026-05-05 00:18 1.95423 102.60331 28233 ft 443 kts 126°
2026-05-05 00:18 1.93580 102.62780 27709 ft 439 kts 126°
2026-05-05 00:18 1.91752 102.65210 27209 ft 436 kts 126°
2026-05-05 00:19 1.89938 102.67620 26709 ft 432 kts 126°
2026-05-05 00:19 1.88138 102.70012 26222 ft 429 kts 126°
2026-05-05 00:19 1.86350 102.72388 25742 ft 426 kts 126°
2026-05-05 00:19 1.84575 102.74746 25273 ft 423 kts 126°
2026-05-05 00:20 1.82812 102.77089 24810 ft 420 kts 126°
2026-05-05 00:20 1.81061 102.79417 24369 ft 417 kts 126°
2026-05-05 00:20 1.79325 102.81723 23923 ft 414 kts 126°
2026-05-05 00:20 1.77600 102.84017 23502 ft 412 kts 126°
2026-05-05 00:21 1.76555 102.85404 23188 ft 410 kts 126°
2026-05-05 00:21 1.74842 102.87680 22733 ft 408 kts 126°
2026-05-05 00:21 1.73240 102.90006 22321 ft 405 kts 120°
2026-05-05 00:21 1.72332 102.91626 22072 ft 401 kts 117°
2026-05-05 00:22 1.71033 102.94082 21694 ft 399 kts 117°
2026-05-05 00:22 1.69747 102.96529 21297 ft 396 kts 117°
2026-05-05 00:22 1.68046 102.99747 20924 ft 395 kts 117°
2026-05-05 00:22 1.66755 103.02173 20909 ft 394 kts 117°
2026-05-05 00:23 1.65466 103.04587 20907 ft 394 kts 117°
2026-05-05 00:23 1.64593 103.06219 20905 ft 394 kts 117°
2026-05-05 00:23 1.63296 103.08641 20896 ft 395 kts 117°
2026-05-05 00:23 1.61983 103.10998 20893 ft 392 kts 123°
2026-05-05 00:24 1.60146 103.13008 20890 ft 394 kts 142°
2026-05-05 00:24 1.57885 103.14529 20908 ft 393 kts 146°
2026-05-05 00:24 1.55575 103.16014 20906 ft 396 kts 146°
2026-05-05 00:24 1.53249 103.17509 20909 ft 398 kts 146°
2026-05-05 00:25 1.50903 103.19026 20545 ft 403 kts 146°
2026-05-05 00:25 1.48573 103.20543 20051 ft 393 kts 145°
2026-05-05 00:25 1.46318 103.22020 19359 ft 383 kts 145°
2026-05-05 00:25 1.44083 103.23490 18581 ft 388 kts 145°
2026-05-05 00:26 1.41822 103.24981 18024 ft 389 kts 145°
2026-05-05 00:26 1.39571 103.26467 17482 ft 387 kts 145°
2026-05-05 00:26 1.37334 103.27943 16970 ft 384 kts 145°
2026-05-05 00:26 1.35106 103.29414 16475 ft 382 kts 145°
2026-05-05 00:27 1.32923 103.30855 15994 ft 379 kts 145°
2026-05-05 00:27 1.30724 103.32306 15514 ft 377 kts 145°
2026-05-05 00:27 1.28541 103.33746 15040 ft 375 kts 145°
2026-05-05 00:27 1.26372 103.35178 14550 ft 373 kts 146°
2026-05-05 00:28 1.24212 103.36604 14075 ft 372 kts 146°
2026-05-05 00:28 1.22057 103.38026 13560 ft 370 kts 146°
2026-05-05 00:28 1.19910 103.39443 13000 ft 370 kts 146°
2026-05-05 00:28 1.17787 103.40844 12768 ft 359 kts 146°
2026-05-05 00:29 1.15731 103.42201 12599 ft 348 kts 146°
2026-05-05 00:29 1.13738 103.43516 12449 ft 338 kts 146°
2026-05-05 00:29 1.11806 103.44791 12307 ft 327 kts 146°
2026-05-05 00:29 1.09931 103.46028 12181 ft 317 kts 146°
2026-05-05 00:30 1.08144 103.47207 12065 ft 307 kts 146°
2026-05-05 00:30 1.06381 103.48388 11973 ft 293 kts 141°
2026-05-05 00:30 1.05120 103.49868 11858 ft 280 kts 116°
2026-05-05 00:30 1.04550 103.51710 11541 ft 278 kts 97°
2026-05-05 00:31 1.04591 103.53633 11227 ft 276 kts 83°
2026-05-05 00:31 1.04845 103.55537 10905 ft 276 kts 82°
2026-05-05 00:31 1.05120 103.57439 10567 ft 277 kts 82°
2026-05-05 00:31 1.05393 103.59348 10234 ft 278 kts 82°
2026-05-05 00:32 1.05662 103.61264 9888 ft 279 kts 83°
2026-05-05 00:32 1.05925 103.63182 9559 ft 279 kts 83°
2026-05-05 00:32 1.06183 103.65094 9247 ft 278 kts 83°
2026-05-05 00:32 1.06438 103.67003 8953 ft 276 kts 83°
2026-05-05 00:33 1.06691 103.68908 8633 ft 275 kts 83°
2026-05-05 00:33 1.06938 103.70777 8475 ft 267 kts 83°
2026-05-05 00:33 1.07184 103.72637 7944 ft 276 kts 83°
2026-05-05 00:33 1.07431 103.74541 7684 ft 274 kts 83°
2026-05-05 00:34 1.07667 103.76395 7574 ft 265 kts 83°
2026-05-05 00:34 1.07895 103.78189 7444 ft 256 kts 83°
2026-05-05 00:34 1.08117 103.79938 7256 ft 251 kts 83°
2026-05-05 00:34 1.08336 103.81664 7001 ft 249 kts 83°
2026-05-05 00:35 1.08552 103.83358 6711 ft 241 kts 83°
2026-05-05 00:35 1.08760 103.84969 6480 ft 227 kts 79°
2026-05-05 00:35 1.09364 103.86365 6087 ft 217 kts 45°
2026-05-05 00:35 1.10564 103.87225 5652 ft 210 kts 29°
2026-05-05 00:36 1.11832 103.87896 5181 ft 208 kts 26°
2026-05-05 00:36 1.13142 103.88503 4721 ft 207 kts 24°
2026-05-05 00:36 1.14457 103.89074 4258 ft 205 kts 23°
2026-05-05 00:36 1.15746 103.89624 3972 ft 201 kts 23°
2026-05-05 00:37 1.17036 103.90171 3686 ft 201 kts 23°
2026-05-05 00:37 1.18316 103.90714 3419 ft 198 kts 23°
2026-05-05 00:37 1.19577 103.91248 3172 ft 195 kts 22°
2026-05-05 00:37 1.20821 103.91776 2944 ft 197 kts 22°
2026-05-05 00:38 1.22078 103.92309 2679 ft 196 kts 23°
2026-05-05 00:38 1.23318 103.92835 2418 ft 190 kts 23°
2026-05-05 00:38 1.24497 103.93335 2157 ft 177 kts 23°
2026-05-05 00:38 1.25571 103.93791 1953 ft 160 kts 23°
2026-05-05 00:39 1.26570 103.94215 1760 ft 155 kts 24°
2026-05-05 00:39 1.27566 103.94638 1589 ft 154 kts 23°
2026-05-05 00:39 1.28534 103.95048 1362 ft 150 kts 23°
2026-05-05 00:39 1.29455 103.95439 1157 ft 150 kts 23°
2026-05-05 00:40 1.30415 103.95846 965 ft 150 kts 23°
2026-05-05 00:40 1.31377 103.96255 785 ft 150 kts 23°
2026-05-05 00:40 1.32335 103.96661 610 ft 149 kts 23°
2026-05-05 00:40 1.33288 103.97065 407 ft 148 kts 22°
2026-05-05 00:41 1.34233 103.97469 221 ft 148 kts 23°
2026-05-05 00:41 1.35165 103.97859 58 ft 147 kts 22°
2026-05-05 00:41 1.36049 103.98233 36 ft 125 kts 22°
2026-05-05 00:41 1.36699 103.98507 35 ft 69 kts 22°
2026-05-05 00:42 1.36959 103.98626 35 ft 39 kts 33°
2026-05-05 00:42 1.37093 103.98766 35 ft 15 kts 70°
2026-05-05 00:42 1.37063 103.98840 35 ft 9 kts 158°
2026-05-05 00:42 1.37002 103.98829 35 ft 10 kts 198°
2026-05-05 00:43 1.36937 103.98805 35 ft 10 kts 205°
2026-05-05 00:43 1.36871 103.98773 35 ft 11 kts 206°
2026-05-05 00:43 1.36804 103.98744 35 ft 11 kts 202°
2026-05-05 00:43 1.36736 103.98716 35 ft 11 kts 202°
2026-05-05 00:44 1.36669 103.98687 35 ft 11 kts 203°
2026-05-05 00:44 1.36602 103.98659 35 ft 11 kts 203°
2026-05-05 00:44 1.36534 103.98630 35 ft 10 kts 203°
2026-05-05 00:44 1.36473 103.98607 35 ft 9 kts 190°
2026-05-05 00:45 1.36425 103.98640 35 ft 9 kts 122°
2026-05-05 00:45 1.36399 103.98698 35 ft 10 kts 112°
2026-05-05 00:45 1.36352 103.98741 35 ft 10 kts 167°
2026-05-05 00:45 1.36286 103.98723 35 ft 10 kts 202°
2026-05-05 00:46 1.36218 103.98694 35 ft 11 kts 202°
2026-05-05 00:46 1.36150 103.98666 35 ft 11 kts 202°
2026-05-05 00:46 1.36095 103.98640 35 ft 8 kts 212°
2026-05-05 00:46 1.36053 103.98603 35 ft 8 kts 208°
2026-05-05 00:47 1.35994 103.98607 35 ft 9 kts 162°
2026-05-05 00:47 1.35941 103.98626 35 ft 6 kts 160°
2026-05-05 00:47 1.35922 103.98633 35 ft 1 kts 161°
2026-05-05 00:47 1.35915 103.98635 35 ft 2 kts 161°
2026-05-05 00:48 1.35914 103.98635 35 ft 0 kts 161°